                ,  0.301,  0.397,  0.494,  0.590,  0.687,  0.784,  0.880,  0.977,  1.073,  1.170,  1.267,  1.363,  1.460,  1.556,  1.653,  1.749,  1.846,  1.943,  2.039,  2.136,  2.232,  2.329,  2.426,  2.522,  2.619,  2.715,  2.812,  2.909,  3.005,  3.102,  3.198,  3.295,  3.392,  3.488,  3.585,  3.681,  3.778,  3.875,  3.971,  4.068,  4.164,  4.261,  4.357,  4.454,  4.551,  4.647,  4.744,  4.840,  4.937,  5.034,  5.130,  5.227,  5.323,  5.420,  5.517,  5.613,  5.710,  5.806,  5.903,  6.000,  6.096,  6.193,  6.289,  6.386,  6.483,  6.579,  6.676,  6.772,  6.869,  6.965,  7.062,  7.159,  7.255,  7.352,  7.448,  7.545,  7.642,  7.738,  7.835,  7.931
2016/03/20 00:00,  999.0,  999.0,   -0.2,   -0.1,    0.1,    0.2,   -0.0,    0.0,    0.2,    0.1,    0.9,    1.1,    1.5,    2.1,    1.4,    2.1,    0.9,    0.8,    0.8,    0.3,   -0.0,    0.1,    0.1,   -0.0,   -0.1,   -0.3,    0.0,   -0.2,    0.6,    0.1,    0.1,    0.1,    0.0,    0.1,    0.3,    0.2,    0.2,    0.0,   -0.2,    0.1,  999.0,   -0.3,   -0.1,    0.0,  999.0,    0.5,   -0.1,    0.0,   -0.5,  999.0,    0.1,   -0.0,   -0.1,  999.0,   -0.2,    0.3,    0.3,   -0.0,   -0.2,    0.2,  999.0,    0.1,   -0.1,    0.3,    1.2,  999.0,   -0.6,   -0.0,   -0.2,   -0.2,   -0.1,   -0.5,   -0.7,   -0.2,    0.1,  999.0,  999.0,  999.0,  999.0,  999.0
2016/03/20 00:10,  999.0,  999.0,    0.0,   -0.0,    0.2,    0.5,    0.2,    0.0,    0.1,    0.0,    1.2,    1.1,    1.1,    2.2,    2.2,    1.7,    2.1,    1.8,    1.0,    0.6,    0.0,   -0.0,   -0.1,    0.0,    0.1,    0.2,    0.0,    0.0,   -0.2,    0.1,   -0.0,   -0.1,   -0.0,   -0.2,   -0.1,   -0.1,   -0.4,    0.1,    0.2,   -0.2,   -1.3,   -0.6,   -0.4,  999.0,   -0.9,   -0.3,   -0.1,    0.0,   -0.1,    0.1,   -0.0,   -0.1,  999.0,    0.0,   -0.6,   -0.1,   -0.6,    0.3,    0.2,    0.0,  999.0,  999.0,  999.0,  999.0,  999.0,  999.0,  999.0,   -0.1,    0.1,  999.0,    0.1,  999.0,   -0.2,   -0.1,    0.1,  999.0,  999.0,  999.0,  999.0,  999.0
2016/03/20 00:20,  999.0,  999.0,  999.0,   -0.4,   -0.0,    0.2,    0.3,    0.1,    0.0,   -0.0,    0.2,    1.0,    0.8,    1.4,    1.4,    1.5,    1.0,    0.4,    0.3,    0.5,   -0.0,    0.0,    0.0,    0.1,    0.0,    0.1,    0.1,   -0.2,   -0.0,    0.1,    0.0,   -0.0,   -0.0,   -0.1,    0.0,    0.1,   -0.0,   -0.0,   -0.1,    0.0,   -0.3,   -0.4,   -0.2,   -0.5,   -1.2,   -0.6,   -0.2,    0.1,   -0.1,  999.0,  999.0,   -0.1,    0.2,   -0.1,   -0.2,    0.1,    0.1,    0.3,   -0.0,    0.0,    0.1,    0.3,   -0.2,    0.1,    0.0,  999.0,    0.4,   -0.5,   -0.4,  999.0,  999.0,    0.2,   -0.3,    0.0,   -0.0,  999.0,  999.0,  999.0,  999.0,  999.0
2016/03/20 00:30,  999.0,  999.0,   -0.1,    0.1,  999.0,    0.1,    0.0,   -0.2,   -0.2,   -0.4,    0.1,    0.4,    0.8,    1.2,    0.7,    1.1,    0.8,    0.6,    0.4,    0.2,  999.0,    0.0,   -0.1,    0.1,    0.1,   -0.1,    0.0,    0.0,    0.0,    0.1,    0.1,    0.0,    0.1,    0.2,    0.1,    0.0,    0.1,   -0.1,    0.0,    0.2,   -0.2,   -0.6,  999.0,   -0.1,  999.0,   -0.2,   -0.0,    0.0,    0.1,  999.0,   -0.3,    0.1,    0.0,   -0.4,   -0.1,    0.0,    0.3,    0.4,    0.1,   -0.1,    0.1,   -0.3,    0.0,    0.0,  999.0,  999.0,   -0.2,   -0.4,   -0.1,   -0.0,   -0.3,    0.2,   -0.1,    0.0,  999.0,  999.0,  999.0,  999.0,  999.0,  999.0
2016/03/20 00:40,  999.0,  999.0,  999.0,  999.0,  999.0,    0.1,    0.1,    0.0,    0.3,    0.2,    0.2,    0.4,    0.3,    0.7,    1.0,    0.7,    0.6,    0.3,    0.3,    0.2,   -0.0,    0.1,   -0.0,    0.0,   -0.0,    0.1,    0.1,    0.1,   -0.1,    0.0,    0.1,   -0.1,    0.1,    0.2,   -0.1,    0.0,   -0.0,   -0.1,    0.2,   -0.0,   -0.4,   -0.4,  999.0,    0.6,    0.4,   -0.2,   -0.1,   -0.1,    0.0,    0.1,  999.0,  999.0,   -0.1,    0.0,    0.4,   -0.7,    0.1,   -0.1,  999.0,    0.0,    0.1,   -0.3,    0.3,   -0.2,  999.0,  999.0,   -0.0,   -0.5,    0.1,  999.0,   -0.2,   -0.0,    0.4,   -0.1,   -0.2,  999.0,  999.0,  999.0,  999.0,  999.0
2016/03/20 00:50,  999.0,  999.0,  999.0,  999.0,  999.0,  999.0,  999.0,  999.0,    0.1,    0.0,    0.0,    0.4,    0.2,    0.2,    0.6,    0.6,    0.3,    0.1,    0.2,    0.1,    0.3,   -0.1,    0.2,   -0.1,   -0.1,   -0.1,    0.0,   -0.2,    0.2,   -0.0,    0.0,    0.2,    0.1,   -0.1,    0.1,   -0.1,   -0.1,   -0.1,    0.2,    0.2,   -0.1,  999.0,    0.1,    0.0,   -0.5,   -0.1,   -0.1,    0.1,    0.1,   -0.1,   -0.3,   -0.2,   -0.2,    0.1,   -0.2,   -0.2,    0.2,   -0.1,   -0.0,   -0.1,    0.1,   -0.3,    0.0,   -0.0,    0.5,   -0.2,   -0.1,   -0.3,   -0.1,  999.0,  999.0,   -0.3,  999.0,  999.0,    0.1,  999.0,  999.0,  999.0,  999.0,  999.0
2016/03/20 01:00,  999.0,  999.0,   -0.0,   -0.2,   -0.1,    0.1,    0.1,    0.1,   -0.0,    0.1,    0.4,    0.7,    0.4,    0.3,   -0.6,  999.0,  999.0,   -0.2,   -0.1,    0.0,   -0.1,   -0.0,    0.0,    0.1,    0.2,    0.1,    0.0,   -0.1,   -0.2,    0.0,    0.0,   -0.0,   -0.0,   -0.1,    0.0,    0.0,    0.0,    0.0,    0.0,    0.1,   -0.2,   -0.1,   -0.1,   -0.1,   -0.0,   -0.0,   -0.1,    0.1,   -0.1,   -0.0,    0.1,    0.2,   -0.2,   -0.1,   -0.3,   -0.2,    0.3,    0.0,    0.2,  999.0,    0.3,    0.3,    0.3,   -0.3,  999.0,   -1.1,   -1.2,   -0.7,   -0.4,   -0.0,    0.0,  999.0,    0.0,    0.2,   -0.5,   -0.3,  999.0,  999.0,  999.0,  999.0
2016/03/20 01:10,  999.0,  999.0,    0.0,  999.0,   -0.1,  999.0,    0.1,   -0.0,    0.1,    0.1,    0.3,    0.0,    0.2,    0.2,  999.0,    0.1,  999.0,  999.0,  999.0,   -0.0,  999.0,    0.0,   -0.1,    0.0,   -0.0,   -0.0,    0.0,    0.0,    0.1,    0.1,    0.1,   -0.1,    0.0,   -0.1,   -0.0,   -0.0,    0.0,   -0.0,    0.2,   -0.1,   -0.1,   -0.3,   -0.2,   -0.0,   -0.1,    0.0,   -0.2,    0.2,    0.0,    0.3,   -0.1,   -0.1,   -0.1,   -0.1,   -0.1,  999.0,    0.1,    0.3,    0.1,   -0.0,   -0.3,    0.1,    0.2,   -0.9,   -0.3,  999.0,   -1.5,   -0.7,   -0.4,    0.1,  999.0,    0.2,    0.5,   -0.1,   -0.3,  999.0,  999.0,  999.0,  999.0,  999.0
2016/03/20 01:20,  999.0,  999.0,   -0.1,   -0.0,   -0.0,    0.0,    0.0,    0.0,    0.1,    0.5,    0.3,    0.2,    0.3,    0.2,    0.1,  999.0,   -0.0,   -0.1,  999.0,  999.0,   -0.1,   -0.0,   -0.0,   -0.1,    0.1,    0.0,    0.0,    0.0,   -0.0,   -0.0,   -0.0,    0.1,   -0.0,    0.1,    0.1,    0.0,   -0.0,   -0.1,    0.1,    0.1,   -0.1,   -0.4,   -0.0,    0.1,    0.1,    0.0,   -0.0,   -0.0,   -0.0,    0.2,   -0.2,    0.2,   -0.1,   -0.0,    0.0,    0.1,   -0.0,   -0.0,   -0.2,    0.4,  999.0,   -0.0,  999.0,    0.1,   -2.2,  999.0,   -2.1,  999.0,  999.0,  999.0,  999.0,  999.0,  999.0,  999.0,  999.0,  999.0,  999.0,  999.0,  999.0,  999.0
2016/03/20 01:30,  999.0,  999.0,   -0.0,    0.1,   -0.1,   -0.2,    0.1,    0.1,    0.3,    0.1,    0.1,    0.0,    0.0,    0.1,    0.0,   -0.0,   -0.0,    0.1,  999.0,   -0.1,   -0.0,   -0.1,   -0.0,    0.0,    0.1,    0.1,    0.0,    0.1,    0.2,    0.0,   -0.0,    0.0,    0.0,   -0.1,    0.0,   -0.0,   -0.1,   -0.0,   -0.1,    0.1,   -0.3,   -0.0,    0.1,    0.0,   -0.1,    0.1,    0.0,   -0.1,   -0.1,    0.2,   -0.0,   -0.1,    0.0,   -0.0,    0.0,    0.1,    0.0,   -0.1,    0.0,   -0.0,    0.0,   -0.1,    0.5,   -0.2,   -1.0,   -1.1,   -1.6,   -0.6,  999.0,   -0.1,    0.3,    0.2,    0.0,   -0.1,    0.2,  999.0,  999.0,  999.0,  999.0,  999.0
2016/03/20 01:40,  999.0,  999.0,   -0.0,    0.1,   -0.0,   -0.1,   -0.1,    0.1,   -0.1,   -0.0,    0.0,   -0.0,   -0.0,    0.0,    0.0,    0.0,    0.1,   -0.1,   -0.0,   -0.1,   -0.0,    0.1,    0.0,   -0.0,    0.1,   -0.0,   -0.4,  999.0,   -0.1,   -0.1,   -0.1,  999.0,    0.0,    0.1,   -0.0,    0.0,    0.0,   -0.1,   -0.1,    0.1,   -0.1,   -0.2,   -0.1,   -0.0,    0.1,    0.1,   -0.0,   -0.1,   -0.1,    0.1,    0.0,    0.2,    0.1,    0.2,    0.1,    0.0,   -0.0,   -0.0,    0.1,   -0.1,   -0.2,   -0.2,    0.3,    0.0,   -0.4,   -0.7,   -0.8,   -0.3,   -0.8,   -0.5,   -0.3,    0.2,    0.1,   -0.0,   -0.2,  999.0,  999.0,  999.0,  999.0,  999.0
2016/03/20 01:50,  999.0,  999.0,   -0.1,   -0.1,   -0.0,    0.0,   -0.0,    0.1,    0.1,    0.0,   -0.0,    0.0,    0.1,    0.2,    0.0,    0.1,    0.1,   -0.0,    0.0,   -0.0,   -0.0,   -0.0,    0.0,   -0.0,   -0.0,   -0.0,    0.0,    0.1,    0.0,    0.0,   -0.2,   -0.1,    0.0,    0.0,   -0.1,    0.0,    0.1,    0.0,   -0.0,   -0.0,   -0.2,   -0.1,    0.0,    0.0,    0.1,   -0.2,    0.0,   -0.0,   -0.0,    0.1,    0.2,    0.0,    0.0,    0.0,   -0.1,   -0.0,    0.1,   -0.1,    0.1,    0.1,    0.1,   -0.0,   -0.2,   -0.2,   -1.0,   -1.0,   -0.4,   -0.4,  999.0,   -0.0,    0.1,    0.0,    0.1,   -0.1,   -0.1,  999.0,  999.0,  999.0,  999.0,  999.0
2016/03/20 02:00,  999.0,  999.0,   -0.0,   -0.0,    0.0,   -0.0,    0.1,    0.0,  999.0,   -0.0,    0.1,   -0.0,   -0.0,   -0.1,   -0.1,   -0.0,  999.0,    0.1,    0.1,    0.0,   -0.0,   -0.0,   -0.1,    0.0,   -0.0,   -0.0,   -0.0,    0.1,    0.0,    0.1,    0.0,   -0.0,   -0.1,    0.0,    0.0,    0.1,    0.0,   -0.0,   -0.0,   -0.2,   -0.1,   -0.1,   -0.0,    0.0,   -0.1,   -0.0,   -0.0,   -0.1,    0.0,    0.1,    0.0,    0.2,    0.2,    0.1,   -0.0,    0.1,    0.0,   -0.0,   -0.2,   -0.2,    0.2,   -0.1,  999.0,  999.0,  999.0,    5.6,  999.0,  999.0,    6.5,    5.3,  999.0,  999.0,  999.0,  999.0,  999.0,  999.0,  999.0,  999.0,  999.0,  999.0
2016/03/20 02:10,  999.0,  999.0,    0.0,    0.1,    0.0,    0.0,    0.1,   -0.1,    0.1,    0.1,    0.0,   -0.2,   -0.1,  999.0,   -0.2,    0.0,    0.0,    0.1,   -0.0,    0.1,    0.0,    0.0,  999.0,   -0.0,   -0.0,   -0.0,   -0.1,   -0.3,    0.0,    0.1,   -0.3,   -0.1,   -0.0,    0.1,   -0.1,   -0.1,   -0.1,   -0.0,   -0.2,   -0.1,   -0.4,   -0.0,   -0.1,    0.1,   -0.1,    0.1,   -0.0,   -0.0,    0.1,    0.1,    0.1,   -0.0,   -0.1,   -0.1,   -0.0,   -0.1,    0.0,   -0.0,    0.0,   -1.3,  999.0,  999.0,  999.0,  999.0,  999.0,  999.0,  999.0,  999.0,  999.0,  999.0,  999.0,  999.0,  999.0,  999.0,  999.0,  999.0,  999.0,  999.0,  999.0,  999.0
2016/03/20 02:20,  999.0,  999.0,   -0.1,    0.0,   -0.1,   -0.0,   -0.1,    0.2,    0.2,    0.2,    0.3,   -0.0,    0.1,   -0.1,   -0.0,    0.3,  999.0,  999.0,   -0.0,   -0.1,    0.0,   -0.1,  999.0,    0.0,    0.0,   -0.1,    0.0,    0.0,    0.0,    0.1,    0.1,    0.0,    0.0,   -0.1,    0.1,   -0.1,   -0.1,   -0.0,    0.1,   -0.1,   -0.2,   -0.2,   -0.1,    0.0,   -0.0,    0.0,    0.1,    0.0,   -0.0,    0.0,   -0.0,    0.2,    0.1,   -0.1,    0.1,    0.2,   -0.0,    0.1,    0.1,   -0.4,  999.0,  999.0,  999.0,   20.2,   16.2,   15.7,   20.5,   12.8,   23.1,  999.0,  999.0,  999.0,  999.0,  999.0,  999.0,  999.0,  999.0,  999.0,  999.0,  999.0
2016/03/20 02:30,  999.0,  999.0,    0.0,    0.0,    0.0,    0.0,    0.0,    0.2,    0.4,    0.2,    0.0,   -0.0,    0.2,    0.2,    0.1,    0.5,    0.1,  999.0,    0.2,   -0.1,   -0.1,   -0.0,   -0.0,    0.1,    0.1,    0.0,    0.0,    0.1,    0.1,   -0.1,    0.1,   -0.1,    0.1,    0.1,    0.2,   -0.0,   -0.0,    0.1,   -0.1,   -0.0,   -0.1,   -0.2,   -0.2,    0.0,   -0.1,   -0.1,   -0.0,    0.1,    0.2,   -0.0,    0.1,   -0.0,    0.2,    0.2,    0.1,    0.1,   -0.3,  999.0,  999.0,  999.0,   19.9,   19.2,   19.1,   19.6,   19.7,   20.0,   20.5,   21.0,   21.9,   22.9,   22.9,  999.0,  999.0,  999.0,  999.0,  999.0,  999.0,  999.0,  999.0,  999.0
2016/03/20 02:40,  999.0,  999.0,    0.0,    0.1,    0.1,    0.0,   -0.1,  999.0,    0.3,    0.1,    0.2,    0.1,    0.2,    0.6,    0.1,  999.0,    0.1,   -0.1,    0.1,   -0.0,  999.0,    0.1,    0.0,   -0.1,   -0.1,   -0.0,   -0.0,   -0.0,    0.1,    0.1,    0.0,    0.2,    0.1,    0.1,   -0.0,   -0.1,   -0.0,   -0.0,    0.1,   -0.1,   -0.3,   -0.2,   -0.0,   -0.0,   -0.1,   -0.2,   -0.1,    0.1,   -0.1,    0.1,    0.2,    0.1,    0.0,   -0.1,    0.0,    0.0,   -0.4,  999.0,  999.0,  999.0,   19.4,   19.3,   19.6,   19.8,   19.8,   19.9,   20.1,   20.4,   20.8,   21.7,   22.2,   22.0,  999.0,  999.0,  999.0,  999.0,  999.0,  999.0,  999.0,  999.0
2016/03/20 02:50,  999.0,  999.0,    0.0,    0.1,    0.1,    0.2,   -0.1,  999.0,  999.0,  999.0,  999.0,  999.0,  999.0,    0.0,    0.1,  999.0,  999.0,    0.1,    0.1,    0.1,    0.1,    0.1,   -0.1,    0.1,   -0.1,   -0.0,   -0.0,   -0.0,    0.0,   -0.1,   -0.0,    0.0,   -0.0,    0.1,   -0.1,    0.0,   -0.0,   -0.1,    0.0,   -0.2,   -0.0,   -0.0,    0.2,    0.0,   -0.1,   -0.1,   -0.1,    0.1,    0.0,    0.1,   -0.1,    0.0,    0.1,   -0.1,   -0.0,    0.2,   -0.1,   -0.0,   -0.1,   -1.0,  999.0,  999.0,  999.0,   20.5,   20.2,   20.0,   20.9,   21.2,   22.1,   22.9,   23.5,   22.7,  999.0,  999.0,  999.0,  999.0,  999.0,  999.0,  999.0,  999.0
2016/03/20 03:00,  999.0,  999.0,    0.0,   -0.1,   -0.1,   -0.0,    0.0,   -0.1,    0.0,    0.0,    0.2,  999.0,    0.1,    0.0,    0.0,   -0.1,   -0.1,   -0.0,    0.0,    0.2,    0.1,    0.1,    0.0,    0.1,   -0.2,   -0.1,   -0.1,   -0.2,    0.0,   -0.0,    0.0,  999.0,   -0.1,   -0.1,   -0.0,    0.0,   -0.0,   -0.1,    0.0,    0.0,    0.0,    0.1,    0.0,   -0.1,   -0.0,   -0.1,   -0.0,   -0.2,    0.0,   -0.0,    0.2,   -0.2,    0.1,    0.1,    0.0,    0.0,    0.0,    0.2,   -0.1,   -0.2,   -0.2,   -1.0,  999.0,  999.0,  999.0,  999.0,   20.0,   20.5,   21.7,   23.2,   23.6,   22.2,  999.0,   23.0,  999.0,  999.0,  999.0,  999.0,  999.0,  999.0
2016/03/20 03:10,  999.0,  999.0,    0.0,    0.1,    0.0,    0.0,    0.1,    0.0,    0.0,   -0.1,   -0.0,  999.0,    0.0,  999.0,    0.1,  999.0,    0.2,    0.1,   -0.0,    0.0,   -0.1,   -0.1,    0.1,   -0.0,    0.0,    0.0,    0.1,    0.1,   -0.0,    0.1,    0.1,    0.0,    0.0,   -0.0,   -0.0,   -0.1,    0.0,   -0.1,   -0.2,   -0.1,   -0.2,   -0.1,    0.1,    0.1,    0.2,    0.1,    0.0,    0.0,    0.1,    0.1,    0.0,    0.1,    0.2,    0.0,    0.1,    0.0,   -0.0,   -0.1,   -0.2,    0.1,   -0.3,   -0.2,  999.0,  999.0,  999.0,  999.0,   20.5,   21.2,   21.9,   23.1,   23.2,  999.0,  999.0,  999.0,  999.0,  999.0,  999.0,  999.0,  999.0,  999.0
2016/03/20 03:20,  999.0,  999.0,   -0.0,   -0.0,   -0.0,    0.0,    0.1,    0.1,    0.1,   -0.1,  999.0,   -0.0,   -0.1,  999.0,   -0.1,  999.0,  999.0,    0.0,  999.0,  999.0,    0.0,   -0.0,    0.1,    0.1,    0.1,   -0.0,    0.2,   -0.2,   -0.1,    0.1,   -0.0,    0.0,   -0.0,   -0.0,    0.1,    0.0,   -0.0,   -0.1,   -0.1,   -0.1,   -0.3,   -0.2,   -0.2,    0.0,    0.1,   -0.1,   -0.1,    0.1,    0.1,   -0.0,    0.0,    0.1,    0.0,    0.1,   -0.1,    0.1,    0.1,    0.0,    0.1,    0.0,    0.0,   -0.0,    0.1,   -0.3,  999.0,  999.0,  999.0,  999.0,  999.0,  999.0,  999.0,   22.0,  999.0,  999.0,  999.0,  999.0,  999.0,  999.0,  999.0,  999.0
2016/03/20 03:30,  999.0,  999.0,   -0.0,   -0.2,   -0.1,   -0.1,    0.1,    0.0,    0.1,    0.2,    0.1,    0.1,   -0.1,   -0.2,   -0.1,  999.0,   -0.0,    0.1,    0.2,    0.1,    0.0,    0.0,   -0.2,    0.0,    0.1,   -0.1,   -0.0,    0.1,   -0.1,    0.1,    0.1,  999.0,   -0.0,    0.0,    0.1,   -0.1,   -0.1,    0.0,   -0.1,   -0.0,   -0.1,   -0.0,    0.0,   -0.0,    0.1,    0.0,    0.1,    0.1,    0.1,   -0.0,    0.1,   -0.0,   -0.0,   -0.1,   -0.1,    0.0,    0.0,    0.1,    0.1,   -0.0,    0.0,   -0.1,   -0.3,  999.0,  999.0,  999.0,  999.0,  999.0,  999.0,   21.3,   22.2,   22.6,   23.0,   23.0,  999.0,  999.0,  999.0,  999.0,  999.0,  999.0
2016/03/20 03:40,  999.0,  999.0,    0.0,   -0.1,   -0.1,    0.0,    0.0,    0.0,   -0.0,    0.0,   -0.1,   -0.1,   -0.1,   -0.1,   -0.1,   -0.1,   -0.0,   -0.1,    0.0,   -0.1,   -0.0,    0.0,    0.0,   -0.0,   -0.0,   -0.1,   -0.0,    0.1,    0.1,    0.1,   -0.3,   -0.0,   -0.1,   -0.0,    0.1,    0.1,    0.0,    0.0,   -0.1,   -0.2,   -0.2,   -0.3,   -0.1,   -0.1,   -0.1,   -0.1,   -0.0,    0.1,   -0.1,   -0.1,    0.1,   -0.1,    0.0,    0.0,    0.1,    0.1,    0.1,    0.2,    0.1,   -0.1,    0.2,    0.1,   -0.1,    0.4,  999.0,  999.0,  999.0,  999.0,  999.0,   20.8,   21.0,   21.1,   21.5,   22.4,  999.0,  999.0,  999.0,  999.0,  999.0,  999.0
2016/03/20 03:50,  999.0,  999.0,   -0.0,    0.1,    0.1,   -0.0,    0.0,   -0.1,   -0.1,   -0.1,   -0.1,   -0.2,   -0.1,    0.1,   -0.1,    0.1,   -0.0,    0.1,    0.1,   -0.1,   -0.1,   -0.1,   -0.0,    0.1,   -0.0,   -0.0,    0.0,    0.0,   -0.1,   -0.0,   -0.1,    0.2,    0.0,    0.1,   -0.0,    0.0,    0.0,    0.0,    0.1,   -0.1,   -0.1,    0.0,    0.0,    0.0,    0.0,   -0.1,    0.1,    0.0,    0.1,    0.1,   -0.0,   -0.1,    0.0,    0.1,    0.1,    0.0,   -0.0,   -0.1,    0.0,   -0.0,    0.0,    0.1,    0.1,   -0.0,  999.0,  999.0,    0.1,  999.0,  999.0,  999.0,  999.0,  999.0,  999.0,  999.0,   -0.0,  999.0,  999.0,  999.0,  999.0,  999.0
2016/03/20 04:00,  999.0,  999.0,   -0.0,   -0.0,   -0.0,    0.1,   -0.0,   -0.0,    0.0,    0.0,   -0.0,   -0.0,   -0.0,   -0.0,   -0.0,    0.1,    0.0,   -0.0,    0.0,    0.1,    0.0,   -0.1,    0.0,    0.0,    0.1,   -0.0,   -0.0,   -0.2,   -0.2,   -0.0,   -0.1,    0.1,    0.1,    0.1,   -0.2,   -0.2,   -0.1,   -0.0,   -0.0,   -0.0,   -0.0,   -0.1,   -0.0,    0.0,   -0.0,   -0.0,   -0.0,   -0.1,    0.0,    0.1,    0.0,    0.0,   -0.0,    0.0,   -0.1,    0.0,    0.0,   -0.1,    0.0,   -0.1,   -0.2,   -0.1,    0.1,    0.0,   -0.1,    0.2,    0.0,    0.1,  999.0,  999.0,  999.0,  999.0,   -0.1,    0.1,  999.0,  999.0,  999.0,  999.0,  999.0,  999.0
2016/03/20 04:10,  999.0,  999.0,   -0.0,    0.0,   -0.0,    0.1,    0.0,    0.0,   -0.0,   -0.1,    0.0,    0.1,   -0.0,   -0.0,    0.0,    0.1,   -0.2,   -0.1,    0.0,   -0.1,   -0.1,   -0.1,   -0.1,    0.0,    0.0,    0.0,   -0.1,    0.0,    0.1,   -0.1,   -0.1,   -0.1,    0.0,    0.1,    0.1,    0.0,    0.1,   -0.0,    0.0,   -0.2,   -0.2,   -0.1,    0.1,    0.1,   -0.1,   -0.0,    0.0,    0.0,   -0.0,    0.1,    0.1,   -0.2,    0.0,   -0.0,   -0.0,    0.0,   -0.0,    0.2,    0.2,    0.0,    0.1,    0.0,    0.4,    0.3,  999.0,    0.3,    0.1,  999.0,  999.0,  999.0,  999.0,  999.0,  999.0,  999.0,  999.0,  999.0,  999.0,  999.0,  999.0,  999.0
2016/03/20 04:20,  999.0,  999.0,   -0.1,    0.0,    0.0,   -0.0,   -0.1,    0.1,   -0.1,    0.1,    0.0,   -0.0,    0.0,    0.0,   -0.0,   -0.0,  999.0,    0.1,    0.1,    0.1,  999.0,   -0.0,    0.0,   -0.1,   -0.0,   -0.0,    0.0,   -0.0,   -0.1,   -0.0,   -0.0,    0.0,   -0.0,    0.0,    0.0,    0.0,    0.0,    0.0,   -0.1,    0.0,   -0.2,    0.1,   -0.0,    0.0,   -0.0,    0.0,    0.1,   -0.0,    0.1,    0.1,    0.1,    0.1,    0.1,    0.0,    0.1,   -0.1,   -0.1,   -0.0,    0.0,   -0.1,    0.0,    0.2,    0.5,    0.5,    0.6,    0.4,    0.2,    0.2,  999.0,  999.0,  999.0,  999.0,  999.0,  999.0,  999.0,  999.0,  999.0,  999.0,  999.0,  999.0
2016/03/20 04:30,  999.0,  999.0,    0.1,   -0.0,    0.0,    0.0,    0.1,   -0.1,   -0.0,    0.0,   -0.2,   -0.0,   -0.0,   -0.1,   -0.1,   -0.1,   -0.0,    0.0,    0.1,   -0.0,   -0.1,   -0.0,    0.0,   -0.0,    0.0,   -0.0,    0.0,    0.1,    0.1,   -0.0,   -0.0,    0.0,   -0.1,   -0.0,    0.0,   -0.0,   -0.1,   -0.0,   -0.1,   -0.1,   -0.2,   -0.0,   -0.1,   -0.1,   -0.1,   -0.0,   -0.1,   -0.1,    0.1,   -0.0,   -0.1,   -0.1,    0.2,   -0.1,    0.0,   -0.2,   -0.0,   -0.1,   -0.0,   -0.0,   -0.1,    0.2,    0.4,   -0.2,  999.0,    0.2,    0.2,  999.0,  999.0,  999.0,  999.0,  999.0,  999.0,  999.0,  999.0,   -0.4,  999.0,  999.0,  999.0,  999.0
2016/03/20 04:40,  999.0,  999.0,   -0.0,   -0.0,   -0.0,    0.1,    0.1,    0.0,    0.1,    0.1,   -0.0,   -0.0,   -0.0,    0.0,   -0.1,  999.0,    0.0,  999.0,   -0.0,   -0.0,    0.1,    0.0,    0.1,   -0.0,   -0.1,   -0.1,   -0.1,   -0.1,   -0.0,   -0.1,    0.0,   -0.1,    0.1,    0.0,   -0.1,   -0.0,    0.1,    0.0,   -0.0,   -0.1,   -0.2,    0.1,   -0.1,    0.0,   -0.1,   -0.0,   -0.0,   -0.0,    0.0,    0.1,   -0.1,   -0.1,   -0.0,    0.2,    0.1,    0.2,    0.2,   -0.0,   -0.1,   -0.1,   -0.4,   -1.1,   -0.8,  999.0,  999.0,  999.0,  999.0,  999.0,  999.0,  999.0,  999.0,  999.0,  999.0,  999.0,  999.0,  999.0,  999.0,  999.0,  999.0,  999.0
2016/03/20 04:50,  999.0,  999.0,   -0.1,   -0.1,    0.0,    0.1,    0.0,    0.1,    0.3,    0.1,   -0.1,   -0.0,    0.0,    0.0,    0.1,    0.1,    0.0,   -0.0,   -0.1,   -0.1,   -0.1,    0.1,   -0.0,   -0.0,   -0.0,    0.1,   -0.0,   -0.1,   -0.1,    0.0,   -0.1,   -0.1,   -0.0,    0.1,   -0.1,    0.0,    0.0,    0.1,    0.0,    0.1,   -0.1,   -0.2,    0.0,    0.0,   -0.0,   -0.1,    0.1,   -0.1,   -0.1,    0.0,    0.1,   -0.0,   -0.1,   -0.1,   -0.1,    0.1,    0.0,   -0.1,    0.0,    0.2,    0.0,   -0.0,  999.0,  999.0,  999.0,  999.0,   21.6,   22.4,   22.6,   23.1,   23.2,   22.4,  999.0,  999.0,  999.0,  999.0,  999.0,  999.0,  999.0,  999.0
2016/03/20 05:00,  999.0,  999.0,   -0.0,  999.0,    0.1,    0.1,    0.2,    0.4,    0.2,    0.5,    0.3,    0.2,   -0.1,   -0.0,    0.1,    0.1,    0.2,    0.1,    0.0,   -0.1,   -0.0,   -0.1,   -0.1,   -0.0,   -0.0,    0.1,    0.0,   -0.1,   -0.1,   -0.1,   -0.0,   -0.0,    0.0,    0.2,   -0.0,    0.1,    0.0,   -0.0,    0.0,   -0.0,   -0.3,   -0.1,   -0.0,    0.1,    0.2,    0.0,    0.1,    0.0,    0.1,    0.1,    0.1,   -0.0,    0.0,   -0.1,   -0.2,   -0.1,   -0.1,    0.1,   -0.2,   -0.2,  999.0,  999.0,  999.0,  999.0,  999.0,   22.0,   22.0,   22.9,   23.1,   22.1,   22.2,   22.2,   22.3,  999.0,  999.0,  999.0,  999.0,  999.0,  999.0,  999.0
2016/03/20 05:10,  999.0,  999.0,    0.1,    0.1,    0.1,    0.2,    0.0,    0.3,    1.1,    0.7,    0.4,    0.5,   -0.0,    0.1,    0.1,   -0.1,    0.0,    0.0,   -0.1,   -0.1,   -0.0,    0.1,    0.2,    0.1,    0.1,    0.2,    0.2,   -0.1,   -0.1,   -0.2,   -0.2,   -0.1,   -0.0,    0.3,    0.0,   -0.0,    0.1,   -0.0,    0.3,    0.2,    0.0,   -0.1,   -0.1,    0.0,   -0.2,   -0.1,    0.0,    0.0,   -0.1,    0.1,   -0.1,   -0.1,   -0.0,   -0.0,  999.0,  999.0,  999.0,  999.0,  999.0,  999.0,  999.0,   25.1,   25.8,   26.8,   26.3,   26.2,   26.1,  999.0,  999.0,  999.0,  999.0,  999.0,  999.0,  999.0,  999.0,  999.0,  999.0,  999.0,  999.0,  999.0
2016/03/20 05:20,  999.0,  999.0,   -0.0,    0.0,  999.0,  999.0,   -0.2,    0.1,    0.4,    0.5,    1.3,    0.5,    0.2,   -0.2,   -0.1,    0.1,   -0.1,   -0.1,   -0.0,    0.0,    0.1,   -0.1,   -0.0,    0.1,   -0.0,   -0.0,   -0.2,   -0.1,    0.0,   -0.1,    0.0,   -0.3,    0.1,    0.1,    0.2,   -0.0,   -0.2,   -0.2,   -0.1,   -0.1,    0.0,   -0.0,   -0.0,    0.1,    0.0,   -0.1,   -0.2,   -0.1,   -0.0,    0.1,    0.1,   -0.2,   -0.1,  999.0,  999.0,  999.0,  999.0,  999.0,  999.0,  999.0,   22.2,   22.9,   23.3,   24.0,   24.1,   23.2,   22.8,   24.3,   24.1,   25.1,   25.1,  999.0,  999.0,  999.0,  999.0,  999.0,  999.0,  999.0,  999.0,  999.0
2016/03/20 05:30,  999.0,  999.0,   -0.1,    0.1,    0.2,  999.0,  999.0,    0.5,    0.7,    1.1,    0.9,    1.6,    1.2,    1.1,    0.5,    0.0,    0.1,   -0.0,   -0.1,   -0.1,   -0.0,   -0.0,    0.0,    0.0,   -0.0,    0.1,    0.1,    0.2,   -0.1,    0.1,   -0.1,    0.2,    0.2,    0.2,    0.4,    0.1,    0.1,    0.2,    0.1,   -0.1,   -0.1,   -0.1,   -0.3,   -0.0,   -0.0,   -0.0,   -0.1,   -0.0,    0.1,   -0.0,    0.4,   -0.3,  999.0,  999.0,  999.0,  999.0,  999.0,  999.0,   23.7,   23.2,   23.1,   23.8,   23.5,   23.6,   23.8,   24.2,   24.6,   24.3,   24.7,  999.0,  999.0,  999.0,  999.0,  999.0,  999.0,  999.0,  999.0,  999.0,  999.0,  999.0
2016/03/20 05:40,  999.0,  999.0,   -0.1,    0.1,    0.2,    0.0,    0.0,   -0.3,    0.0,    0.5,    1.4,    1.0,    0.7,    0.2,    0.1,   -0.0,    0.2,    0.0,   -0.0,   -0.0,   -0.1,   -0.0,    0.1,    0.2,    0.1,    0.3,    0.1,    0.0,    0.1,   -0.2,    0.2,    0.1,    0.2,    0.2,    0.0,   -0.0,    0.1,    0.2,   -0.1,   -0.1,   -0.2,    0.0,    0.1,    0.1,    0.1,   -0.1,   -0.1,    0.0,   -0.0,    0.3,   -0.0,    0.1,   -0.5,  999.0,  999.0,  999.0,  999.0,   23.8,   24.5,   24.8,   25.1,   25.3,   25.1,   25.5,   24.4,   24.2,   24.7,   24.9,   25.3,   26.0,  999.0,  999.0,  999.0,  999.0,  999.0,  999.0,  999.0,  999.0,  999.0,  999.0
2016/03/20 05:50,  999.0,  999.0,    0.2,    0.5,    0.2,    0.1,    0.3,    0.4,    0.7,    0.7,    1.5,    1.5,    0.7,   -0.2,   -0.3,   -0.1,    0.1,    0.1,   -0.1,   -0.0,    0.0,    0.0,    0.0,    0.2,    0.1,    0.0,    0.0,    0.1,    0.1,    0.2,    0.1,    0.0,    0.1,   -0.0,    0.1,    0.2,    0.1,   -0.0,    0.2,    0.1,   -0.4,   -0.1,    0.0,   -0.1,   -0.1,    0.1,   -0.0,    0.0,   -0.1,   -0.2,  999.0,  999.0,  999.0,  999.0,  999.0,   21.8,   23.5,   24.0,   24.5,   24.5,   24.6,   24.8,   25.0,   25.3,   25.4,   25.1,   25.0,  999.0,  999.0,  999.0,  999.0,  999.0,  999.0,  999.0,  999.0,  999.0,  999.0,  999.0,  999.0,  999.0
2016/03/20 06:00,  999.0,    0.1,    0.3,    0.3,    0.2,    0.1,    0.6,    0.7,    0.5,    0.4,   -0.3,    1.3,    0.5,    0.3,    0.7,    0.3,    0.2,    0.1,   -0.0,   -0.0,    0.1,    0.1,    0.3,   -0.0,   -0.1,    0.2,    0.0,    0.2,   -0.0,    0.0,   -0.1,   -0.2,   -0.0,    0.1,  999.0,   -0.3,   -0.1,   -0.1,   -0.1,  999.0,   -0.4,   -0.3,    0.1,    0.0,    0.2,    0.2,    0.1,    0.1,    0.1,  999.0,  999.0,  999.0,  999.0,  999.0,   21.0,   22.4,   23.9,   23.9,   25.4,   25.5,   25.4,   25.0,   24.8,   23.8,   23.8,   24.2,   25.8,   25.1,   25.4,  999.0,  999.0,  999.0,  999.0,  999.0,  999.0,  999.0,  999.0,  999.0,  999.0,  999.0
2016/03/20 06:10,  999.0,  999.0,    0.2,   -0.1,    0.4,    0.3,  999.0,    0.4,    0.3,   -0.2,    0.7,  999.0,    0.2,    0.3,    0.2,   -0.0,    0.0,    0.0,   -0.1,   -0.1,   -0.0,    0.0,    0.0,   -0.1,  999.0,    0.2,    0.0,    0.1,    0.2,    0.2,   -0.0,   -0.0,    0.1,  999.0,    0.3,   -0.2,    0.1,  999.0,    0.2,  999.0,   -0.5,   -0.4,    0.1,  999.0,   -0.3,   -0.1,   -0.0,    0.0,   -0.1,  999.0,  999.0,  999.0,  999.0,  999.0,  999.0,  999.0,   20.9,   22.4,   23.7,   24.3,   23.7,   24.0,   23.5,   24.2,   23.7,  999.0,  999.0,  999.0,  999.0,  999.0,  999.0,  999.0,  999.0,  999.0,  999.0,  999.0,  999.0,  999.0,  999.0,  999.0
2016/03/20 06:20,  999.0,  999.0,    0.3,    0.2,    0.2,    0.2,    0.1,   -0.3,    0.2,  999.0,    1.7,    0.9,    0.1,    0.4,    0.1,    0.6,    0.5,    0.3,    0.2,    0.1,    0.0,   -0.1,    0.1,    0.2,    0.0,    0.0,    0.1,    0.4,    0.1,    0.1,    0.1,    0.0,    0.0,   -0.0,   -0.2,   -0.0,   -0.4,    0.1,    0.0,  999.0,   -0.4,  999.0,    0.1,    0.0,    0.1,    0.1,    0.1,   -0.0,   -0.1,   -0.2,  999.0,  999.0,  999.0,  999.0,  999.0,  999.0,  999.0,   21.3,   23.2,   23.6,   22.6,   24.1,   24.0,   24.5,  999.0,  999.0,  999.0,  999.0,  999.0,  999.0,  999.0,  999.0,  999.0,  999.0,  999.0,  999.0,  999.0,  999.0,  999.0,  999.0
2016/03/20 06:30,  999.0,   -0.0,    0.2,    0.4,    0.4,    0.4,    0.4,    0.6,    0.4,    0.7,    1.7,    1.5,    1.2,    0.9,    0.4,    0.3,    0.3,    0.2,    0.4,    0.5,    0.2,    0.1,    0.1,    0.1,    0.0,   -0.1,   -0.1,    0.1,    0.0,    0.2,   -0.1,    0.2,    0.1,   -0.1,   -0.1,    0.1,    0.4,   -0.1,    0.4,   -0.0,   -0.6,   -0.1,   -0.1,   -0.1,    0.3,  999.0,    0.1,   -0.2,    0.0,   -0.1,  999.0,  999.0,  999.0,  999.0,  999.0,  999.0,  999.0,  999.0,  999.0,  999.0,  999.0,   21.7,   21.7,  999.0,  999.0,  999.0,  999.0,  999.0,  999.0,  999.0,  999.0,  999.0,  999.0,  999.0,  999.0,  999.0,  999.0,  999.0,  999.0,  999.0
2016/03/20 06:40,  999.0,    0.0,    0.2,    0.5,    0.2,    0.2,    0.1,    0.1,    0.6,    0.8,    0.8,    0.5,    1.1,    0.9,    0.4,    0.3,    0.1,    0.5,    0.9,    0.4,    0.1,    0.1,    0.0,   -0.2,   -0.3,    0.1,    0.1,   -0.1,    0.3,    0.2,    0.3,    0.5,    0.0,    0.2,    0.2,   -0.5,   -0.2,  999.0,    0.0,  999.0,   -0.5,    0.1,  999.0,  999.0,  999.0,  999.0,  999.0,  999.0,  999.0,  999.0,  999.0,  999.0,  999.0,  999.0,  999.0,  999.0,  999.0,   20.6,   21.9,   21.6,   22.8,   22.6,   22.3,   22.5,   21.0,   22.9,  999.0,  999.0,  999.0,  999.0,  999.0,  999.0,  999.0,  999.0,  999.0,  999.0,  999.0,  999.0,  999.0,  999.0
2016/03/20 06:50,  999.0,    0.1,    0.0,    0.1,    0.1,    0.3,    0.2,    0.0,   -0.1,    0.2,    0.7,    0.9,    1.2,    0.8,    0.2,    0.5,    0.1,   -0.4,   -0.0,    0.0,   -0.0,    0.1,    0.1,    0.3,   -0.1,   -0.1,   -0.2,   -0.3,   -0.2,    0.1,   -0.2,   -0.1,    0.0,   -0.1,  999.0,    0.1,    0.2,    0.0,   -0.0,    0.2,    0.1,   -0.5,   -0.0,  999.0,    0.1,   -0.1,  999.0,  999.0,  999.0,  999.0,  999.0,  999.0,  999.0,  999.0,  999.0,  999.0,  999.0,  999.0,  999.0,   23.1,   23.3,   23.3,   23.5,   23.3,   23.3,   23.5,   22.8,   23.3,  999.0,  999.0,  999.0,  999.0,  999.0,  999.0,  999.0,  999.0,  999.0,  999.0,  999.0,  999.0
2016/03/20 07:00,  999.0,    0.1,    0.2,    0.1,    0.1,   -0.1,    0.1,  999.0,    0.4,    0.6,  999.0,    0.3,    0.2,    0.7,    0.2,    1.8,    1.2,    0.0,    0.2,   -0.1,   -0.3,   -0.0,   -0.0,    0.1,   -0.1,   -0.0,   -0.0,   -0.1,   -0.3,    0.1,   -0.0,    0.0,   -0.0,    0.1,    0.1,    0.5,   -0.3,   -0.3,   -0.1,   -0.4,  999.0,  999.0,  999.0,  999.0,  999.0,  999.0,  999.0,  999.0,  999.0,  999.0,  999.0,  999.0,  999.0,  999.0,  999.0,  999.0,   19.7,   21.3,   22.1,   23.0,   23.3,   22.7,   23.4,   23.8,   23.9,  999.0,  999.0,  999.0,  999.0,  999.0,  999.0,  999.0,  999.0,  999.0,  999.0,  999.0,  999.0,  999.0,  999.0,  999.0
2016/03/20 07:10,  999.0,    0.2,    0.2,    0.2,   -0.5,   -0.0,    0.3,    0.8,    0.8,    1.0,    1.0,    1.3,    0.9,    1.6,    1.2,    1.8,    1.4,    0.4,    0.0,    0.0,   -0.0,    0.3,    0.2,    0.1,   -0.1,   -0.2,   -0.0,    0.3,    0.1,    0.1,    0.2,   -0.0,    0.1,    0.1,  999.0,    0.0,  999.0,    0.2,    0.2,   -0.0,  999.0,  999.0,  999.0,  999.0,   -0.1,  999.0,  999.0,  999.0,  999.0,  999.0,  999.0,  999.0,  999.0,  999.0,  999.0,  999.0,   18.6,   20.1,   21.3,   21.7,   22.0,   22.7,   22.6,   22.5,  999.0,  999.0,  999.0,  999.0,  999.0,  999.0,  999.0,  999.0,  999.0,  999.0,  999.0,  999.0,  999.0,  999.0,  999.0,  999.0
2016/03/20 07:20,  999.0,  999.0,    0.0,  999.0,  999.0,  999.0,  999.0,  999.0,  999.0,    0.4,  999.0,    0.5,    0.7,    0.7,    0.3,    0.4,    0.5,    0.9,    0.4,    0.1,   -0.0,   -0.1,   -0.0,    0.1,  999.0,   -0.1,    0.1,    0.0,   -0.0,   -0.0,    0.1,    0.4,   -0.0,    0.1,    0.1,   -0.1,   -0.1,   -0.1,   -0.3,   -0.1,  999.0,   -0.0,  999.0,  999.0,  999.0,  999.0,  999.0,  999.0,  999.0,  999.0,  999.0,  999.0,  999.0,  999.0,  999.0,  999.0,  999.0,  999.0,  999.0,   20.9,   22.2,   21.0,   21.8,   22.0,   22.9,  999.0,  999.0,  999.0,  999.0,  999.0,  999.0,  999.0,  999.0,  999.0,  999.0,  999.0,  999.0,  999.0,  999.0,  999.0
2016/03/20 07:30,  999.0,  999.0,   -0.1,   -0.0,  999.0,  999.0,  999.0,  999.0,  999.0,   -0.3,  999.0,  999.0,    0.4,    0.8,  999.0,  999.0,  999.0,    0.0,  999.0,    0.1,    0.1,   -0.0,    0.1,    0.2,  999.0,    0.1,   -0.0,   -0.0,   -0.1,   -0.0,   -0.1,    0.0,    0.0,    0.2,   -0.0,    0.0,   -0.0,    0.0,   -0.0,    0.0,  999.0,   -0.2,    0.0,    0.1,  999.0,    0.2,   -0.2,    0.0,  999.0,  999.0,  999.0,  999.0,  999.0,  999.0,  999.0,  999.0,  999.0,  999.0,  999.0,  999.0,  999.0,   24.6,  999.0,  999.0,  999.0,  999.0,  999.0,  999.0,  999.0,  999.0,  999.0,  999.0,  999.0,  999.0,  999.0,  999.0,  999.0,  999.0,  999.0,  999.0
2016/03/20 07:40,  999.0,  999.0,    0.0,    0.0,    0.0,   -0.0,    0.1,    0.0,  999.0,    0.0,    0.0,    0.2,    0.2,    0.3,    0.1,    0.2,  999.0,    0.1,    0.0,   -0.0,    0.1,   -0.0,    0.0,    0.0,   -0.1,   -0.1,    0.1,    0.1,   -0.1,    0.1,    0.1,    0.0,    0.1,    0.1,    0.1,    0.2,   -0.0,   -0.1,   -0.1,    0.1,   -0.2,   -0.3,   -0.1,   -0.1,   -0.0,   -0.0,    0.2,    0.1,   -0.1,   -0.2,    0.0,    0.2,    0.0,    0.2,   -0.1,    0.2,    0.0,   -0.1,    0.2,  999.0,  999.0,   10.9,   11.3,   11.6,   11.4,  999.0,  999.0,  999.0,  999.0,  999.0,  999.0,  999.0,  999.0,  999.0,  999.0,  999.0,  999.0,  999.0,  999.0,  999.0
2016/03/20 07:50,  999.0,  999.0,    0.0,   -0.0,   -0.1,   -0.0,   -0.0,    0.0,   -0.0,    0.2,    0.1,    0.0,    0.2,    0.1,   -0.0,    0.1,  999.0,  999.0,    0.1,   -0.1,    0.0,   -0.1,    0.0,    0.1,    0.0,    0.1,    0.0,    0.1,    0.1,    0.2,   -0.0,    0.1,    0.1,    0.1,    0.1,   -0.1,   -0.0,    0.0,    0.1,   -0.0,   -0.3,   -0.2,   -0.0,    0.1,    0.0,   -0.1,    0.1,   -0.1,   -0.1,    0.1,    0.2,    0.0,   -0.1,    0.0,    0.0,   -0.1,   -0.1,   -0.1,  999.0,  999.0,  999.0,  999.0,  999.0,  999.0,  999.0,  999.0,  999.0,  999.0,  999.0,  999.0,  999.0,  999.0,  999.0,  999.0,  999.0,  999.0,  999.0,  999.0,  999.0,  999.0
2016/03/20 08:00,  999.0,  999.0,   -0.1,   -0.0,    0.2,    0.1,    0.1,    0.1,   -0.1,   -0.1,    0.0,   -0.0,   -0.0,  999.0,    0.0,  999.0,  999.0,    0.0,   -0.0,    0.0,    0.1,    0.1,  999.0,    0.0,   -0.0,    0.0,    0.0,    0.1,    0.2,    0.1,    0.0,   -0.0,    0.0,    0.1,   -0.1,    0.0,   -0.1,    0.0,    0.1,    0.1,   -0.1,   -0.2,   -0.1,   -0.0,   -0.1,   -0.0,   -0.0,   -0.0,    0.1,   -0.0,    0.2,    0.1,   -0.1,   -0.1,    0.1,  999.0,  999.0,  999.0,  999.0,  999.0,  999.0,  999.0,   23.8,   23.5,   23.5,   23.3,  999.0,  999.0,  999.0,  999.0,  999.0,  999.0,  999.0,  999.0,  999.0,  999.0,  999.0,  999.0,  999.0,  999.0
2016/03/20 08:10,  999.0,  999.0,    0.0,    0.0,    0.0,    0.0,    0.0,    0.1,    0.1,    0.1,    0.0,   -0.1,   -0.1,    0.0,   -0.0,    0.1,    0.2,    0.0,    0.1,    0.0,    0.0,   -0.1,   -0.1,   -0.0,   -0.0,    0.0,   -0.0,    0.2,    0.1,    0.2,   -0.0,   -0.0,    0.1,    0.1,    0.0,    0.1,   -0.0,   -0.0,    0.0,    0.2,   -0.1,   -0.2,   -0.0,    0.1,   -0.1,   -0.1,    0.1,    0.0,    0.0,    0.0,    0.1,    0.0,    0.1,   -0.1,    0.2,   -0.3,   -0.1,  999.0,  999.0,  999.0,  999.0,  999.0,   22.2,   22.7,   22.5,   21.8,  999.0,  999.0,  999.0,  999.0,  999.0,  999.0,  999.0,  999.0,  999.0,  999.0,  999.0,  999.0,  999.0,  999.0
2016/03/20 08:20,  999.0,  999.0,    0.1,   -0.0,    0.1,    0.1,    0.0,   -0.1,   -0.0,    0.0,    0.0,    0.0,    0.2,  999.0,    0.2,    0.3,  999.0,  999.0,  999.0,    0.1,    0.3,    0.1,   -0.1,   -0.1,    0.1,    0.1,   -0.1,   -0.1,   -0.0,   -0.0,   -0.1,   -0.0,   -0.0,    0.0,    0.2,    0.1,    0.1,    0.1,    0.1,   -0.1,   -0.2,   -0.1,   -0.1,   -0.1,    0.0,   -0.1,    0.1,    0.1,    0.0,   -0.0,    0.1,   -0.1,    0.1,    0.1,   -0.1,   -0.1,   -0.1,  999.0,  999.0,  999.0,  999.0,  999.0,  999.0,   16.3,  999.0,  999.0,  999.0,  999.0,  999.0,  999.0,  999.0,  999.0,  999.0,  999.0,  999.0,  999.0,  999.0,  999.0,  999.0,  999.0
2016/03/20 08:30,  999.0,   -0.0,   -0.2,    0.1,  999.0,   -0.1,    0.1,   -0.0,   -0.0,    0.0,    0.4,    0.2,    0.0,    0.1,    0.6,    0.4,    0.5,    0.1,    0.2,    0.3,    0.3,    0.2,   -0.0,   -0.2,    0.1,   -0.1,    0.0,   -0.0,   -0.2,   -0.1,    0.2,    0.0,    0.1,   -0.0,   -0.0,    0.0,    0.0,   -0.1,    0.2,   -0.1,   -0.2,    0.1,    0.2,   -0.0,    0.0,   -0.1,   -0.1,   -0.1,   -0.1,    0.1,   -0.2,    0.1,    0.0,    0.3,    0.2,   -0.0,   -0.1,   -0.0,  999.0,  999.0,  999.0,  999.0,  999.0,  999.0,  999.0,  999.0,  999.0,  999.0,  999.0,  999.0,  999.0,  999.0,  999.0,  999.0,  999.0,  999.0,  999.0,  999.0,  999.0,  999.0
2016/03/20 08:40,  999.0,  999.0,    0.1,   -0.0,   -0.1,    0.1,    0.1,    0.1,    0.1,    0.2,    0.3,    0.4,    0.1,    0.3,    0.4,    0.5,    0.8,    1.0,    1.0,    1.0,    0.1,    0.3,    0.1,   -0.0,   -0.0,   -0.0,    0.1,   -0.1,    0.1,   -0.1,    0.0,   -0.2,   -0.0,   -0.2,   -0.2,   -0.1,    0.1,    0.1,    0.0,  999.0,   -0.3,  999.0,   -0.4,   -0.2,    0.3,    0.2,    0.3,    0.2,    0.1,  999.0,  999.0,  999.0,  999.0,   -0.1,   -0.2,   -0.6,   -0.2,  999.0,  999.0,  999.0,  999.0,  999.0,  999.0,  999.0,  999.0,  999.0,  999.0,  999.0,  999.0,  999.0,  999.0,  999.0,  999.0,  999.0,   -0.1,  999.0,  999.0,  999.0,  999.0,  999.0
2016/03/20 08:50,  999.0,  999.0,   -0.1,    0.1,  999.0,   -0.1,    0.2,    0.1,    0.1,    0.1,    0.4,    0.6,    0.4,    0.5,    0.6,    0.6,    2.1,    1.8,    1.4,    0.9,    0.1,    0.2,    0.0,    0.1,    0.3,    0.1,    0.1,   -0.0,    0.2,    0.1,    0.2,    0.2,    0.1,    0.3,  999.0,    0.2,   -0.4,    0.2,    0.0,   -0.0,   -0.4,    0.0,   -0.0,    0.1,   -0.2,    0.2,    0.0,   -0.0,    0.1,  999.0,  999.0,   -0.4,   -0.4,   -0.2,   -0.5,   -0.2,   -0.3,    0.1,  999.0,  999.0,    0.0,   -0.4,  999.0,    0.3,   -0.2,   -0.2,  999.0,   -0.4,  999.0,  999.0,  999.0,   -0.1,  999.0,  999.0,   -0.1,  999.0,  999.0,  999.0,  999.0,  999.0
2016/03/20 09:00,  999.0,    0.2,    0.3,    0.2,    0.1,  999.0,    0.4,    0.2,    0.3,   -0.0,    0.3,    0.2,    0.1,    0.0,    0.7,    0.8,    1.6,    2.0,    1.3,    0.6,    0.2,    0.0,    0.2,   -0.0,    0.1,    0.1,   -0.0,    0.2,   -0.0,   -0.2,    0.1,   -0.0,   -0.2,  999.0,    0.1,    0.0,    0.1,    0.6,    0.1,   -0.1,   -0.6,   -0.1,   -0.2,   -0.2,   -0.1,   -0.0,   -0.3,    0.1,    0.1,  999.0,    0.2,  999.0,    0.0,   -0.0,    0.0,   -0.1,    0.2,   -0.4,   -0.3,   -0.1,   -0.2,    0.1,   -0.3,    0.2,    0.1,   -0.4,   -0.2,  999.0,   -0.2,  999.0,    0.3,  999.0,   -0.0,   -0.3,   -0.3,  999.0,  999.0,  999.0,  999.0,  999.0
2016/03/20 09:10,  999.0,  999.0,    0.2,    0.1,    0.0,   -0.1,  999.0,  999.0,    0.1,    0.0,   -0.2,   -0.1,    0.0,   -0.0,   -0.1,    0.2,    0.4,    1.0,    1.3,    1.5,    0.7,    0.4,   -0.0,    0.1,    0.2,    0.3,    0.2,    0.0,   -0.0,    0.1,    0.1,    0.0,    0.1,    0.1,   -0.0,    0.1,    0.2,   -0.0,    0.1,   -0.0,   -0.4,   -0.3,   -0.1,    0.0,    0.1,    0.2,    0.0,   -0.1,   -0.2,   -0.4,    0.0,    0.1,    0.1,    0.1,    0.1,   -0.0,   -0.2,   -0.1,   -0.0,    0.0,    0.0,    0.2,    0.1,   -0.3,    0.1,   -0.0,   -0.4,   -1.7,   -1.2,  999.0,   -0.2,  999.0,   -0.1,   -0.4,    0.2,  999.0,  999.0,  999.0,  999.0,  999.0
2016/03/20 09:20,  999.0,  999.0,   -0.1,   -0.0,  999.0,    0.1,  999.0,  999.0,  999.0,   -0.1,    0.1,   -0.0,    0.5,    0.2,    1.0,    0.4,    0.4,    0.9,    1.1,    0.5,    0.3,    0.0,   -0.4,   -0.5,    0.1,   -0.1,    0.0,   -0.0,    0.0,   -0.1,    0.2,    0.1,    0.1,    0.1,   -0.1,   -0.0,    0.0,    0.0,    0.0,   -0.2,   -0.1,   -0.1,   -0.2,    0.1,   -0.0,    0.0,   -0.0,    0.0,    0.0,  999.0,   -0.2,   -0.3,   -0.3,    0.1,   -0.1,    0.0,    0.0,    0.0,    0.3,   -0.0,    0.1,   -0.2,   -0.1,   -0.1,   -0.1,   -0.3,   -0.0,   -0.1,   -0.5,   -0.7,   -0.1,  999.0,  999.0,   -0.2,    0.1,  999.0,  999.0,  999.0,  999.0,  999.0
2016/03/20 09:30,  999.0,    0.1,    0.2,    0.0,    0.1,   -0.1,   -0.0,    0.2,    0.1,    0.3,    0.3,    0.5,    0.4,    0.1,    0.6,    0.8,    1.2,    1.5,    1.0,    0.7,    0.6,    0.1,    0.0,    0.1,    0.0,    0.1,   -0.1,    0.0,    0.0,    0.1,    0.2,    0.1,    0.1,    0.1,    0.0,   -0.1,    0.1,   -0.0,   -0.1,    0.1,   -0.1,   -0.0,   -0.0,   -0.1,   -0.0,    0.0,    0.1,   -0.1,    0.0,    0.2,   -0.1,   -0.0,   -0.2,   -0.1,    0.0,   -0.1,    0.1,    0.1,    0.1,   -0.1,    0.1,    0.1,   -0.1,    0.1,   -0.2,   -0.1,   -0.3,    0.2,   -0.0,   -0.1,    0.0,   -0.0,   -0.2,   -0.0,    0.3,  999.0,  999.0,  999.0,  999.0,  999.0
2016/03/20 09:40,  999.0,  999.0,    0.0,    0.1,  999.0,  999.0,    0.3,  999.0,    0.4,    0.2,   -0.1,   -0.1,    0.3,    0.4,    0.4,    0.8,    0.4,    0.7,    0.2,    0.5,    0.1,    0.0,    0.1,    0.1,    0.3,    0.1,    0.1,    0.1,    0.3,    0.1,    0.0,   -0.1,   -0.0,    0.1,    0.1,   -0.1,   -0.1,    0.0,    0.0,    0.0,   -0.2,    0.0,   -0.1,    0.0,   -0.2,   -0.1,   -0.1,   -0.1,   -0.1,   -0.0,   -0.1,   -0.0,    0.1,    0.1,   -0.1,   -0.1,    0.1,   -0.2,    0.1,   -0.2,    0.0,   -0.1,   -0.1,   -0.1,    0.1,   -0.1,    0.1,    0.1,  999.0,   -0.1,   -0.0,    0.1,    0.1,    0.0,  999.0,  999.0,  999.0,  999.0,  999.0,  999.0
2016/03/20 09:50,  999.0,  999.0,   -0.1,    0.1,   -0.1,    0.0,    0.3,   -0.1,   -0.1,   -0.1,   -0.1,    0.1,   -0.0,    0.4,    0.3,    0.8,    0.9,    1.0,    0.7,    0.1,    0.3,    0.7,    0.3,    0.2,    0.5,    0.1,   -0.0,    0.1,    0.1,    0.1,    0.2,    0.0,    0.2,    0.1,    0.0,    0.1,   -0.0,    0.0,   -0.2,   -0.1,   -0.4,   -0.4,   -0.2,   -0.2,   -0.1,   -0.1,    0.0,   -0.0,   -0.1,   -0.1,    0.0,   -0.2,   -0.1,   -0.2,    0.1,    0.1,    0.0,   -0.0,    0.1,   -0.0,   -0.0,   -0.1,    0.0,   -0.2,    0.1,    0.2,   -0.2,   -0.1,   -0.5,   -0.4,   -0.0,  999.0,  999.0,  999.0,  999.0,  999.0,  999.0,  999.0,  999.0,  999.0
2016/03/20 10:00,  999.0,  999.0,   -0.5,    0.1,   -0.0,    0.1,   -0.2,   -0.4,   -0.4,    0.3,    0.2,    0.2,    0.3,    0.2,    0.2,    0.1,    0.6,    0.9,    0.2,    0.0,    0.1,   -0.4,    0.1,   -0.2,    0.4,    0.0,    0.1,   -0.0,   -0.1,    0.2,    0.2,   -0.1,    0.1,    0.1,    0.0,    0.1,    0.2,    0.0,   -0.0,   -0.3,   -0.3,   -0.0,    0.0,    0.1,   -0.0,    0.0,   -0.1,    0.0,    0.0,    0.2,    0.1,    0.2,   -0.1,   -0.2,   -0.0,   -0.1,    0.0,   -0.1,   -0.0,    0.1,   -0.1,    0.4,  999.0,   -0.1,   -0.1,   -0.1,   -0.2,   -0.1,   -0.2,   -0.0,   -0.1,    0.0,    0.2,  999.0,    0.4,  999.0,  999.0,  999.0,  999.0,  999.0
2016/03/20 10:10,  999.0,  999.0,    0.0,    0.2,    0.0,    0.1,    0.0,    0.1,   -0.1,   -0.0,    0.3,    0.3,    0.3,    0.1,    0.3,    0.6,    1.0,    1.8,    1.5,    1.7,    1.6,    1.1,    0.2,    0.1,    0.2,   -0.0,   -0.1,    0.1,    0.2,    0.2,    0.3,    0.0,    0.1,    0.0,    0.1,    0.2,   -0.1,    0.1,    0.2,   -0.2,   -0.3,   -0.3,    0.0,   -0.0,    0.0,   -0.1,   -0.1,    0.1,    0.0,   -0.1,   -0.1,    0.1,    0.1,   -0.1,   -0.1,   -0.1,   -0.2,    0.0,   -0.1,    0.0,   -0.1,   -0.2,   -0.1,   -0.1,    0.0,   -0.0,    0.2,    0.3,  999.0,   -0.1,    0.2,   -0.0,    0.0,   -0.0,    0.0,  999.0,  999.0,  999.0,  999.0,  999.0
2016/03/20 10:20,  999.0,    0.0,   -0.1,   -0.1,  999.0,  999.0,  999.0,  999.0,  999.0,    0.2,   -0.0,   -0.1,   -0.0,    0.4,    0.4,    0.2,    0.4,    1.4,    0.3,    0.3,    0.1,    0.4,    0.0,   -0.0,   -0.0,    0.0,    0.0,    0.0,    0.0,    0.1,    0.1,   -0.1,    0.0,    0.1,   -0.0,   -0.0,   -0.1,   -0.1,    0.2,   -0.1,   -0.4,   -0.3,    0.1,   -0.1,   -0.2,    0.0,   -0.0,    0.1,   -0.0,   -0.1,    0.0,    0.0,   -0.0,   -0.2,    0.0,   -0.2,   -0.2,   -0.1,    0.1,    0.2,    0.5,    0.2,   -0.2,    0.2,   -0.2,   -0.1,    0.1,    0.3,    0.1,  999.0,   -0.2,   -0.0,    0.1,   -0.1,   -0.0,  999.0,  999.0,  999.0,  999.0,  999.0
2016/03/20 10:30,  999.0,  999.0,    0.1,    0.1,    0.1,  999.0,   -0.1,   -0.4,    0.1,    0.2,    0.1,    0.3,    0.4,    0.5,    0.1,    0.4,    0.1,    0.4,    0.1,    0.2,    0.2,    0.2,    0.0,  999.0,    0.0,   -0.1,    0.0,   -0.0,   -0.1,   -0.0,    0.0,   -0.1,   -0.1,   -0.1,    0.0,   -0.1,    0.1,    0.0,    0.2,    0.1,   -0.1,    0.0,   -0.3,   -0.0,   -0.1,   -0.1,   -0.1,   -0.1,   -0.0,   -0.1,   -0.0,    0.1,    0.0,    0.1,   -0.2,    0.0,    0.0,   -0.1,   -0.2,    0.1,    0.1,    0.2,    0.1,    0.1,    0.2,   -0.1,   -0.1,    0.2,    0.2,    0.1,   -0.2,    0.4,   -0.0,    0.1,  999.0,   -0.1,  999.0,  999.0,  999.0,  999.0
2016/03/20 10:40,  999.0,  999.0,    0.2,    0.1,    0.3,  999.0,  999.0,    0.0,    0.1,    0.0,    0.0,    0.1,    0.4,    0.6,    0.4,    0.3,    0.3,    0.3,    0.5,    0.2,   -0.0,    0.2,    0.2,   -0.1,   -0.3,   -0.1,   -0.2,   -0.2,    0.1,    0.0,   -0.2,    0.0,    0.0,    0.0,   -0.0,   -0.0,   -0.0,   -0.1,   -0.2,   -0.0,   -0.3,   -0.2,    0.1,    0.2,    0.2,    0.1,    0.0,    0.1,   -0.2,   -0.1,   -0.1,    0.1,    0.2,   -0.0,    0.1,    0.1,    0.1,    0.0,   -0.1,    0.4,    0.0,    0.0,    0.3,    0.1,   -0.0,   -0.4,    0.4,    0.2,  999.0,    0.4,   -0.1,    0.3,    0.3,  999.0,  999.0,  999.0,  999.0,  999.0,  999.0,  999.0
2016/03/20 10:50,  999.0,  999.0,    0.0,    0.0,    0.1,   -0.0,    0.3,  999.0,  999.0,    0.2,   -0.1,   -0.1,   -0.0,    0.4,    0.4,    0.0,    0.2,    0.4,    0.5,    0.3,    0.5,    0.5,    0.5,    0.0,   -0.2,   -0.1,    0.2,    0.1,    0.2,    0.0,   -0.3,   -0.1,   -0.0,   -0.0,   -0.0,    0.0,    0.2,   -0.1,   -0.2,    0.0,   -0.3,   -0.2,   -0.0,    0.1,    0.0,   -0.1,    0.2,    0.2,    0.1,    0.0,    0.0,   -0.0,   -0.0,   -0.0,   -0.1,   -0.1,   -0.2,   -0.1,   -0.1,    0.1,    0.0,    0.1,   -0.3,   -0.2,   -0.0,   -0.2,  999.0,  999.0,    0.2,  999.0,  999.0,  999.0,    0.4,   -0.3,  999.0,  999.0,  999.0,  999.0,  999.0,  999.0
2016/03/20 11:00,  999.0,  999.0,   -0.1,    0.2,    0.0,  999.0,    0.2,    0.2,  999.0,   -0.1,    0.2,    0.1,   -0.2,    0.1,    0.3,    0.2,    0.4,    0.7,    0.4,    0.4,  999.0,    0.2,    0.1,    0.2,    0.1,    0.0,   -0.0,   -0.1,    0.2,    0.2,   -0.0,   -0.1,   -0.1,    0.1,   -0.1,   -0.1,   -0.0,    0.1,    0.1,    0.2,    0.0,    0.0,   -0.1,   -0.1,    0.1,    0.2,    0.1,   -0.2,    0.0,    0.1,    0.0,    0.1,    0.0,    0.0,   -0.1,   -0.1,   -0.0,    0.1,    0.2,   -0.3,   -0.1,   -0.1,    0.1,   -0.1,   -0.1,    0.0,    0.2,   -0.1,  999.0,   -0.0,    0.0,    0.1,    0.0,    0.0,    0.0,  999.0,  999.0,  999.0,  999.0,  999.0
2016/03/20 11:10,  999.0,  999.0,    0.0,    0.1,  999.0,    0.1,    0.2,   -0.0,  999.0,   -0.2,    0.1,    0.2,    0.5,    0.1,   -0.2,    0.7,    0.6,    0.9,    0.6,    0.7,    0.3,    0.3,   -0.0,  999.0,    0.2,    0.1,   -0.1,   -0.1,   -0.1,    0.1,    0.0,   -0.1,    0.1,    0.2,    0.0,   -0.1,   -0.1,   -0.1,   -0.0,   -0.1,   -0.2,   -0.0,    0.0,    0.0,    0.0,    0.1,   -0.1,   -0.0,    0.0,    0.1,    0.0,    0.1,    0.1,    0.0,   -0.0,   -0.1,   -0.0,    0.0,   -0.0,   -0.0,    0.2,   -0.1,   -0.0,    0.1,    0.1,    0.1,    0.0,    0.2,   -0.0,   -0.0,  999.0,  999.0,    0.1,   -0.1,    0.1,    0.1,  999.0,  999.0,  999.0,  999.0
2016/03/20 11:20,  999.0,  999.0,   -0.1,    0.1,   -0.0,  999.0,  999.0,   -0.1,  999.0,   -0.2,   -0.1,    0.0,    0.1,  999.0,  999.0,    0.3,    0.2,    0.4,  999.0,  999.0,  999.0,    0.4,   -0.1,  999.0,  999.0,    0.2,   -0.0,    0.1,   -0.2,    0.1,    0.0,   -0.1,   -0.1,   -0.1,   -0.2,   -0.1,   -0.0,   -0.1,    0.1,   -0.1,   -0.1,   -0.2,    0.0,   -0.0,    0.0,    0.1,    0.1,    0.0,    0.1,    0.0,    0.1,   -0.0,    0.0,    0.0,   -0.2,    0.3,   -0.1,    0.0,    0.0,    0.1,    0.1,   -0.1,   -0.1,    0.0,   -0.0,   -0.1,    0.2,    0.1,   -0.2,   -0.3,    0.0,    0.1,    0.1,    0.1,    0.0,  999.0,  999.0,  999.0,  999.0,  999.0
2016/03/20 11:30,  999.0,  999.0,    0.1,   -0.0,    0.0,   -0.0,  999.0,  999.0,    0.1,    0.1,   -0.0,    0.2,    0.1,    0.0,    0.1,    0.1,    0.2,    0.0,   -0.2,    0.1,   -0.2,   -0.1,   -0.2,   -0.1,    0.1,   -0.0,    0.1,   -0.1,   -0.1,   -0.0,   -0.1,   -0.2,    0.0,    0.0,   -0.1,    0.0,    0.0,   -0.1,    0.0,   -0.1,   -0.2,   -0.2,   -0.1,    0.1,   -0.1,   -0.1,   -0.1,    0.0,    0.0,    0.0,   -0.1,   -0.2,   -0.1,   -0.2,    0.0,    0.1,    0.1,    0.2,    0.3,    0.1,    0.1,    0.1,   -0.2,    0.0,    0.1,    0.1,   -0.2,    0.0,    0.0,    0.2,   -0.3,   -0.2,   -0.0,   -0.1,   -0.1,    0.1,  999.0,  999.0,  999.0,  999.0
2016/03/20 11:40,  999.0,  999.0,    0.0,    0.2,   -0.0,   -0.1,  999.0,   -0.0,   -0.1,    0.0,    0.0,    0.0,    0.3,    0.3,    0.1,    0.1,  999.0,  999.0,    0.2,  999.0,    0.7,    0.1,   -0.1,   -0.1,   -0.0,   -0.0,   -0.0,    0.2,   -0.0,   -0.0,    0.1,   -0.0,   -0.0,    0.0,    0.0,    0.1,   -0.0,    0.0,    0.0,    0.1,   -0.0,   -0.2,   -0.1,    0.0,   -0.1,    0.0,   -0.0,   -0.0,   -0.1,   -0.1,    0.1,    0.1,    0.1,    0.0,    0.1,   -0.1,    0.1,    0.0,   -0.2,    0.2,    0.1,   -0.3,    0.0,    0.5,    0.7,    0.8,    0.8,    0.9,    0.3,    0.5,  999.0,   -0.2,    0.1,   -0.2,  999.0,  999.0,  999.0,  999.0,  999.0,  999.0
2016/03/20 11:50,  999.0,  999.0,   -0.0,   -0.1,    0.0,  999.0,  999.0,    0.1,    0.1,    0.1,    0.1,   -0.0,  999.0,   -0.1,    0.0,   -0.0,   -0.1,    0.1,  999.0,  999.0,  999.0,   -0.1,   -0.0,   -0.0,   -0.1,   -0.0,  999.0,    0.1,    0.3,   -0.1,   -0.1,   -0.1,    0.2,   -0.0,   -0.1,   -0.1,   -0.0,   -0.1,   -0.2,   -0.1,   -0.1,   -0.2,    0.1,    0.1,    0.1,   -0.0,   -0.2,   -0.0,    0.0,    0.1,   -0.1,    0.0,    0.1,    0.1,   -0.0,    0.1,    0.0,    0.1,   -0.0,   -0.0,    0.0,    0.1,   -0.1,    0.1,    0.1,   -0.1,   -0.2,   -0.1,   -0.0,    0.1,  999.0,    0.0,    0.1,   -0.0,   -0.0,  999.0,  999.0,  999.0,  999.0,  999.0
2016/03/20 12:00,  999.0,  999.0,   -0.1,    0.1,    0.0,   -0.1,    0.0,    0.0,    0.1,    0.1,    0.0,   -0.0,    0.0,   -0.0,   -0.0,   -0.1,   -0.1,   -0.1,  999.0,   -0.3,   -0.4,   -0.1,   -0.0,    0.0,   -0.0,   -0.1,   -0.1,    0.2,   -0.0,  999.0,    0.0,    0.0,    0.0,   -0.0,   -0.1,    0.1,   -0.1,    0.0,    0.0,    0.1,   -0.1,   -0.0,    0.0,    0.0,   -0.0,    0.0,   -0.1,   -0.0,   -0.2,   -0.1,    0.1,    0.1,    0.0,   -0.1,   -0.0,   -0.1,    0.1,   -0.0,   -0.0,   -0.2,   -0.1,    0.1,    0.5,    0.8,    0.9,    0.8,    0.4,    0.1,    0.7,    0.4,   -0.0,  999.0,    0.3,   -0.1,    0.1,  999.0,  999.0,  999.0,  999.0,  999.0
2016/03/20 12:10,  999.0,  999.0,    0.0,    0.1,    0.0,   -0.1,   -0.0,  999.0,    0.1,    0.1,    0.1,    0.2,    0.1,    0.3,    0.3,    0.1,    0.0,  999.0,    0.2,    0.0,   -0.0,    0.0,  999.0,   -0.0,   -0.1,   -0.1,   -0.0,    0.0,    0.2,   -0.0,   -0.1,    0.0,   -0.0,    0.0,    0.0,   -0.0,    0.1,    0.2,    0.1,    0.0,    0.1,   -0.1,    0.0,    0.0,   -0.0,    0.1,    0.1,   -0.1,   -0.1,   -0.1,   -0.2,   -0.1,   -0.0,    0.0,   -0.0,    0.2,    0.1,    0.1,   -0.1,   -0.0,   -0.0,    0.3,    0.4,    0.5,    0.8,    0.2,    0.1,    0.2,    0.2,   -0.0,  999.0,    0.3,    0.1,    0.0,  999.0,  999.0,  999.0,  999.0,  999.0,  999.0
2016/03/20 12:20,  999.0,  999.0,   -0.1,    0.0,  999.0,    0.1,   -0.1,  999.0,   -0.2,   -0.1,    0.0,   -0.1,    0.2,    0.4,    0.4,    0.2,   -0.0,    0.4,    0.7,  999.0,  999.0,    0.3,   -0.2,   -0.1,   -0.0,    0.1,    0.0,   -0.1,   -0.2,    0.1,    0.0,    0.0,    0.0,   -0.0,   -0.1,    0.1,    0.1,    0.0,    0.1,   -0.0,   -0.1,    0.0,    0.2,    0.2,    0.0,   -0.0,   -0.0,    0.0,   -0.0,   -0.1,   -0.0,    0.0,   -0.1,    0.0,   -0.1,   -0.1,   -0.1,   -0.1,   -0.3,    0.0,    0.2,    0.2,    0.6,    0.4,    0.2,    0.1,    0.3,    0.0,   -0.1,    0.3,  999.0,   -0.3,    0.0,   -0.0,    0.2,  999.0,  999.0,  999.0,  999.0,  999.0
2016/03/20 12:30,  999.0,  999.0,   -0.0,    0.1,  999.0,   -0.1,   -0.1,  999.0,   -0.0,    0.0,    0.0,    0.0,    0.2,    0.2,    0.5,    0.2,    0.1,  999.0,    0.5,    0.2,  999.0,   -0.2,   -0.0,   -0.1,   -0.0,    0.1,   -0.0,    0.0,   -0.0,   -0.2,  999.0,   -0.1,   -0.0,    0.0,   -0.0,   -0.1,   -0.0,    0.0,    0.1,   -0.0,    0.0,    0.1,    0.0,   -0.0,    0.1,   -0.2,   -0.2,   -0.1,   -0.0,    0.1,    0.1,    0.0,    0.1,   -0.1,   -0.2,   -0.2,   -0.1,    0.2,    0.1,    0.2,    0.2,    0.4,   -0.0,   -0.0,    0.0,   -0.0,    0.3,    0.2,    0.1,  999.0,   -0.1,    0.6,    0.3,   -0.0,   -0.2,  999.0,  999.0,  999.0,  999.0,  999.0
2016/03/20 12:40,  999.0,  999.0,   -0.0,    0.1,    0.0,   -0.0,  999.0,   -0.1,  999.0,    0.0,    0.0,    0.0,    0.2,    0.1,    0.6,    0.6,    0.5,    0.6,    0.2,    0.1,    0.1,   -0.1,    0.4,    0.2,   -0.1,    0.0,   -0.1,   -0.1,   -0.1,    0.1,   -0.1,   -0.0,    0.2,    0.1,    0.0,   -0.0,    0.2,    0.0,    0.1,    0.1,   -0.0,    0.1,    0.1,   -0.1,    0.0,   -0.1,   -0.0,   -0.1,   -0.1,   -0.0,   -0.1,    0.0,    0.2,    0.2,    0.1,    0.1,   -0.2,    0.1,   -0.1,   -0.3,   -0.0,    0.0,   -0.0,   -0.2,    0.2,    0.1,    0.0,    0.1,    0.2,  999.0,  999.0,  999.0,    0.1,  999.0,   -0.1,  999.0,  999.0,  999.0,  999.0,  999.0
2016/03/20 12:50,  999.0,  999.0,    0.0,    0.1,  999.0,  999.0,   -0.0,   -0.0,   -0.0,   -0.1,    0.0,  999.0,    0.2,    0.5,    0.7,    0.7,    0.4,    0.3,    0.1,    0.0,    0.5,    0.4,    0.3,    0.1,   -0.2,   -0.1,   -0.2,   -0.1,   -0.1,   -0.0,   -0.1,   -0.0,   -0.0,   -0.0,   -0.0,    0.0,    0.0,   -0.1,   -0.1,   -0.1,   -0.3,   -0.3,   -0.0,   -0.0,    0.1,    0.1,    0.0,   -0.1,   -0.0,   -0.1,    0.0,   -0.0,    0.0,   -0.2,   -0.2,    0.0,   -0.1,    0.0,    0.1,    0.2,    0.3,    0.1,    0.2,    0.1,    0.0,   -0.1,    0.1,   -0.0,   -0.2,    0.1,   -0.0,    0.2,   -0.2,   -0.1,    0.2,  999.0,  999.0,  999.0,  999.0,  999.0
2016/03/20 13:00,  999.0,  999.0,    0.0,    0.0,   -0.0,    0.1,    0.3,    0.1,    0.1,    0.1,    0.3,    0.5,    0.6,    0.8,    0.6,    0.4,    0.4,    0.7,    0.5,    0.5,    1.1,    0.6,    0.6,    0.1,   -0.0,   -0.0,    0.1,    0.2,    0.0,    0.0,    0.0,    0.0,    0.0,    0.0,    0.1,   -0.0,   -0.0,   -0.0,   -0.1,    0.0,   -0.3,   -0.2,    0.1,   -0.1,    0.1,   -0.1,    0.0,   -0.0,    0.1,   -0.1,    0.0,    0.1,   -0.0,    0.1,   -0.0,   -0.0,   -0.0,    0.1,   -0.0,    0.0,   -0.0,   -0.2,   -0.3,    0.1,   -0.1,    0.1,    0.1,   -0.1,    0.0,    0.2,    0.1,   -0.1,   -0.2,  999.0,    0.0,    0.2,  999.0,  999.0,  999.0,  999.0
2016/03/20 13:10,  999.0,  999.0,    0.0,    0.1,    0.0,  999.0,    0.0,   -0.0,    0.0,   -0.0,    0.3,    0.5,    0.7,    0.6,    0.4,    0.2,    0.4,    0.7,    0.6,    0.5,    0.1,   -0.4,   -0.1,   -0.2,   -0.1,    0.0,    0.1,   -0.0,    0.0,    0.2,   -0.0,    0.0,   -0.0,    0.1,    0.0,   -0.0,    0.1,   -0.0,    0.1,   -0.2,    0.0,    0.0,   -0.1,    0.1,    0.1,   -0.1,   -0.1,   -0.2,   -0.1,    0.1,   -0.1,    0.1,    0.0,    0.0,    0.1,   -0.1,   -0.1,   -0.0,   -0.0,    0.0,    0.1,   -0.1,   -0.3,   -0.3,   -0.1,    0.1,   -0.1,   -0.1,   -0.1,   -0.0,  999.0,    0.1,    0.1,   -0.2,    0.1,  999.0,  999.0,  999.0,  999.0,  999.0
2016/03/20 13:20,  999.0,  999.0,   -0.0,  999.0,  999.0,  999.0,   -0.0,    0.1,    0.2,    0.1,    0.6,    0.4,    0.2,    0.3,    0.2,    0.3,    0.2,    0.3,    0.5,    0.2,    0.5,    0.6,    0.6,    0.0,   -0.0,   -0.0,    0.0,   -0.1,   -0.0,   -0.0,    0.1,   -0.2,   -0.0,   -0.1,   -0.2,   -0.1,   -0.1,   -0.0,   -0.0,   -0.1,   -0.2,    0.0,   -0.1,    0.1,   -0.1,   -0.1,    0.1,    0.0,    0.1,   -0.1,    0.1,   -0.1,    0.1,    0.2,    0.0,    0.1,    0.0,   -0.0,   -0.0,    0.1,    0.1,    0.3,    0.2,    0.1,    0.1,    0.2,    0.0,   -0.1,    0.2,  999.0,    0.1,  999.0,   -0.1,   -0.2,   -0.1,  999.0,  999.0,  999.0,  999.0,  999.0
2016/03/20 13:30,  999.0,  999.0,   -0.0,   -0.1,   -0.0,    0.2,  999.0,  999.0,    0.1,    0.0,    0.2,    0.3,    0.4,    0.3,    0.1,    0.2,    0.2,    0.4,    0.4,    0.3,    0.7,    1.4,    0.3,    0.1,   -0.1,   -0.1,    0.1,   -0.0,   -0.1,    0.1,    0.1,   -0.1,    0.1,   -0.1,    0.0,    0.1,    0.2,    0.2,    0.2,   -0.0,   -0.2,   -0.2,   -0.1,    0.0,    0.1,   -0.0,   -0.1,   -0.1,   -0.0,    0.0,    0.1,    0.1,    0.2,    0.0,    0.1,    0.0,    0.2,    0.1,   -0.1,   -0.0,    0.2,    0.0,    0.0,   -0.1,    0.0,    0.0,   -0.0,    0.0,   -0.2,   -0.1,   -0.2,   -0.4,  999.0,  999.0,    0.0,  999.0,  999.0,  999.0,  999.0,  999.0
2016/03/20 13:40,  999.0,  999.0,    0.0,   -0.0,    0.0,   -0.1,   -0.1,   -0.1,    0.1,   -0.0,    0.2,    0.1,    0.4,    0.4,    0.2,    0.3,    0.1,    0.3,    0.1,    0.5,    0.2,    0.5,   -0.3,    0.3,    0.0,   -0.0,   -0.0,    0.2,   -0.1,   -0.1,    0.1,   -0.1,   -0.1,    0.1,    0.0,    0.0,    0.0,    0.1,    0.1,    0.1,   -0.1,   -0.1,    0.0,    0.1,   -0.1,   -0.1,    0.0,    0.0,    0.1,    0.0,    0.0,   -0.0,   -0.1,    0.1,    0.0,   -0.1,    0.1,    0.3,    0.1,    0.2,    0.2,    0.1,    0.1,   -0.2,   -0.0,   -0.0,   -0.2,   -0.1,    0.1,    0.1,  999.0,    0.2,    0.2,  999.0,   -0.1,  999.0,  999.0,  999.0,  999.0,  999.0
2016/03/20 13:50,  999.0,  999.0,    0.1,   -0.0,  999.0,   -0.0,    0.0,   -0.1,    0.0,   -0.1,    0.1,   -0.0,   -0.1,    0.1,    0.1,    0.1,    0.1,  999.0,    0.2,    0.8,    1.2,    1.1,    0.8,    0.2,    0.1,    0.2,    0.1,   -0.1,    0.1,    0.1,   -0.0,    0.2,    0.1,    0.1,    0.1,    0.1,    0.1,    0.0,   -0.1,   -0.0,   -0.2,    0.0,    0.0,   -0.1,   -0.1,   -0.0,    0.0,   -0.0,    0.0,   -0.0,   -0.0,    0.1,   -0.1,    0.0,   -0.0,   -0.1,   -0.2,    0.0,    0.1,   -0.2,    0.0,    0.1,    0.2,    0.0,    0.1,   -0.1,    0.0,   -0.1,  999.0,   -0.0,  999.0,   -0.2,   -0.2,    0.1,   -0.2,  999.0,  999.0,  999.0,  999.0,  999.0
2016/03/20 14:00,  999.0,  999.0,   -0.0,  999.0,   -0.2,    0.0,   -0.0,  999.0,  999.0,    0.0,   -0.1,   -0.0,    0.1,    0.0,    0.2,    0.3,    0.3,    0.3,    0.3,    0.9,    1.2,    2.1,    1.6,    0.9,    0.2,   -0.0,    0.1,   -0.0,  999.0,   -0.1,   -0.0,   -0.0,   -0.1,   -0.1,    0.2,    0.1,   -0.0,    0.0,   -0.0,   -0.0,   -0.4,   -0.3,    0.0,    0.0,    0.0,   -0.0,    0.1,   -0.0,    0.0,    0.1,    0.1,    0.1,    0.0,    0.0,   -0.0,    0.2,    0.2,   -0.1,   -0.1,   -0.0,   -0.1,   -0.2,   -0.2,   -0.1,   -0.1,   -0.0,   -0.2,   -0.0,   -0.1,    0.1,   -0.1,    0.2,    0.1,   -0.1,  999.0,  999.0,  999.0,  999.0,  999.0,  999.0
2016/03/20 14:10,  999.0,  999.0,   -0.0,  999.0,  999.0,    0.1,   -0.1,   -0.0,   -0.1,   -0.0,    0.1,   -0.0,   -0.0,    0.1,   -0.2,    0.6,    0.5,    0.5,    1.0,    1.3,    1.2,    0.9,    2.2,    0.2,    0.4,    0.1,    0.1,   -0.1,    0.1,   -0.1,   -0.3,  999.0,    0.0,    0.0,   -0.1,    0.1,    0.1,    0.0,   -0.1,   -0.1,    0.0,   -0.1,   -0.0,    0.0,    0.1,    0.1,    0.1,    0.1,    0.0,   -0.0,    0.1,    0.1,   -0.1,    0.1,    0.1,   -0.1,    0.0,   -0.1,   -0.1,   -0.1,    0.1,    0.1,   -0.1,   -0.0,    0.0,   -0.0,    0.2,    0.1,    0.0,    0.4,    0.0,    0.3,    0.3,   -0.1,   -0.3,   -0.2,  999.0,  999.0,  999.0,  999.0
2016/03/20 14:20,  999.0,  999.0,   -0.1,   -0.0,   -0.1,    0.0,   -0.2,    0.0,    0.1,    0.1,    0.0,    0.0,    0.1,    0.2,    0.2,    0.1,    0.1,    0.1,    0.3,  999.0,    0.6,    0.8,   -0.5,   -0.3,    0.3,   -0.1,   -0.1,   -0.0,    0.1,    0.1,   -0.1,    0.1,    0.1,    0.0,   -0.1,   -0.1,    0.1,    0.2,    0.1,   -0.0,   -0.1,   -0.3,   -0.1,    0.1,    0.1,    0.1,   -0.1,   -0.0,    0.0,    0.1,    0.0,    0.1,    0.0,    0.0,   -0.0,    0.1,    0.0,   -0.1,   -0.1,   -0.2,   -0.2,    0.1,   -0.0,    0.1,    0.2,   -0.2,   -0.2,   -0.1,  999.0,    0.0,  999.0,  999.0,    0.1,    0.2,   -0.1,   -0.1,    0.1,  999.0,  999.0,  999.0
2016/03/20 14:30,  999.0,  999.0,    0.0,   -0.1,   -0.1,    0.1,   -0.0,   -0.0,   -0.0,   -0.0,   -0.1,    0.1,    0.1,    0.0,    0.2,    0.3,    0.4,    0.3,    0.4,    0.6,    0.3,    1.6,    0.6,    0.5,    0.0,    0.0,   -0.0,   -0.0,   -0.0,    0.1,   -0.1,  999.0,    0.1,   -0.0,   -0.2,   -0.1,   -0.1,   -0.0,   -0.0,    0.1,   -0.1,    0.0,   -0.1,   -0.0,   -0.0,   -0.1,   -0.0,   -0.0,   -0.1,   -0.0,   -0.2,   -0.1,    0.0,    0.1,    0.1,    0.0,    0.1,    0.1,    0.1,   -0.1,    0.1,   -0.1,    0.2,    0.1,    0.1,   -0.0,    0.1,    0.1,   -0.1,   -0.0,  999.0,   -0.0,    0.2,  999.0,    0.1,  999.0,  999.0,  999.0,  999.0,  999.0
2016/03/20 14:40,  999.0,  999.0,    0.1,   -0.0,    0.2,    0.2,    0.1,    0.2,    0.0,    0.1,    0.1,    0.2,   -0.0,    0.1,    0.2,    0.3,    0.4,    0.4,    0.7,    0.6,    1.7,  999.0,    1.6,    1.6,    0.6,    0.2,    0.0,   -0.0,    0.2,   -0.0,   -0.1,   -0.0,    0.0,   -0.1,    0.2,   -0.0,   -0.1,   -0.0,   -0.0,   -0.0,   -0.3,   -0.3,    0.0,   -0.1,   -0.1,    0.0,   -0.1,   -0.2,    0.2,   -0.2,   -0.2,    0.0,   -0.1,    0.1,   -0.1,   -0.0,   -0.0,    0.2,    0.2,    0.2,    0.1,    0.0,   -0.0,    0.1,    0.1,    0.1,   -0.1,    0.1,  999.0,    0.3,    0.2,   -0.1,   -0.1,    0.1,    0.2,  999.0,  999.0,  999.0,  999.0,  999.0
2016/03/20 14:50,  999.0,  999.0,   -0.1,    0.1,   -0.2,    0.1,  999.0,    0.0,    0.2,    0.2,    0.1,    0.1,    0.0,    0.2,    0.3,    0.6,    0.5,    0.7,    0.5,    0.1,    1.0,    1.3,    1.2,    0.5,    0.2,    0.0,   -0.1,    0.0,   -0.0,   -0.1,   -0.0,    0.0,   -0.2,   -0.1,    0.2,   -0.0,    0.0,    0.0,   -0.1,    0.2,    0.0,    0.1,    0.0,   -0.2,   -0.1,    0.1,    0.0,   -0.1,   -0.1,   -0.0,    0.2,    0.1,   -0.1,    0.2,   -0.1,   -0.0,    0.1,    0.2,   -0.1,    0.0,   -0.2,    0.0,    0.1,    0.2,    0.0,    0.2,   -0.2,    0.1,  999.0,    0.1,  999.0,    0.1,    0.3,    0.4,    0.1,  999.0,  999.0,   -0.2,  999.0,  999.0
2016/03/20 15:00,  999.0,  999.0,    0.0,  999.0,   -0.1,  999.0,  999.0,  999.0,    0.0,    0.0,  999.0,    0.1,    0.1,    0.1,    0.3,    0.2,    0.4,    0.4,    0.2,    0.4,    1.2,    1.8,    1.3,    0.7,   -0.0,    0.1,    0.0,   -0.1,    0.2,    0.0,    0.1,   -0.2,   -0.2,   -0.0,    0.0,    0.1,    0.1,   -0.1,   -0.0,   -0.1,   -0.1,   -0.1,    0.1,    0.0,    0.0,   -0.1,   -0.0,   -0.0,   -0.0,   -0.1,    0.2,    0.2,    0.0,   -0.1,   -0.0,   -0.1,    0.1,   -0.1,   -0.3,    0.1,   -0.0,    0.1,    0.0,   -0.1,   -0.2,   -0.4,  999.0,    0.5,    0.2,   -0.0,   -0.0,  999.0,   -0.0,   -0.0,  999.0,  999.0,  999.0,  999.0,  999.0,  999.0
2016/03/20 15:10,  999.0,  999.0,   -0.1,   -0.1,   -0.1,    0.0,  999.0,    0.1,  999.0,   -0.0,   -0.0,    0.0,    0.1,    0.1,    0.0,   -0.1,    0.0,    0.2,    0.3,    0.6,    1.3,    2.1,    3.5,    0.8,    0.3,   -0.1,   -0.1,   -0.1,   -0.1,   -0.0,   -0.0,   -0.1,   -0.0,   -0.0,   -0.1,   -0.1,   -0.0,   -0.1,   -0.0,   -0.1,   -0.2,   -0.1,   -0.1,   -0.0,    0.0,   -0.2,   -0.1,   -0.0,   -0.0,   -0.2,   -0.1,    0.0,   -0.1,   -0.2,    0.0,   -0.1,    0.3,    0.0,    0.1,   -0.1,    0.1,    0.2,    0.0,   -0.1,   -0.3,   -0.5,   -0.1,    0.3,  999.0,  999.0,    0.1,    0.1,   -0.1,   -0.1,    0.0,  999.0,  999.0,  999.0,  999.0,  999.0
2016/03/20 15:20,  999.0,  999.0,    0.0,    0.1,    0.3,  999.0,    0.2,    0.1,   -0.0,   -0.0,    0.0,    0.1,    0.1,    0.1,   -0.1,    0.2,    0.2,    0.3,    0.2,    0.7,    1.7,    2.5,    2.8,    1.1,    0.3,   -0.1,   -0.1,   -0.1,   -0.1,   -0.1,   -0.1,    0.0,   -0.1,   -0.0,   -0.1,   -0.1,   -0.0,    0.0,   -0.0,   -0.1,   -0.2,   -0.3,   -0.1,   -0.1,   -0.2,   -0.2,   -0.0,    0.0,    0.1,   -0.1,   -0.1,    0.0,    0.1,   -0.1,   -0.1,    0.0,   -0.1,   -0.0,   -0.0,    0.1,    0.0,   -0.1,    0.3,    0.0,   -0.0,    0.2,    0.0,   -0.1,    0.2,  999.0,    0.0,  999.0,    0.0,  999.0,   -0.2,  999.0,  999.0,  999.0,  999.0,  999.0
2016/03/20 15:30,  999.0,  999.0,  999.0,    0.2,    0.2,    0.1,    0.2,    0.1,    0.1,    0.2,    0.2,    0.2,    0.3,    0.3,    0.3,    0.5,    0.6,    0.9,    0.6,    0.5,    1.5,    3.3,  999.0,    0.4,    0.6,    0.1,   -0.1,    0.2,    0.0,   -0.2,   -0.0,   -0.0,   -0.0,   -0.1,   -0.0,   -0.0,    0.0,    0.0,    0.1,    0.0,   -0.4,   -0.1,   -0.0,   -0.0,    0.0,    0.1,    0.2,    0.1,    0.1,    0.2,    0.2,   -0.2,    0.2,    0.0,    0.2,   -0.0,    0.0,    0.0,    0.1,    0.3,    0.2,    0.3,   -0.0,    0.1,   -0.1,   -0.4,  999.0,   -0.2,    0.1,    0.3,   -0.0,    0.1,   -0.1,   -0.1,  999.0,  999.0,  999.0,  999.0,  999.0,  999.0
2016/03/20 15:40,  999.0,   -0.0,   -0.0,   -0.1,   -0.1,   -0.1,  999.0,    0.0,   -0.0,    0.2,   -0.0,   -0.1,   -0.0,    0.2,    0.1,    0.1,   -0.1,    0.4,    0.9,    1.5,    2.5,    3.6,    4.5,    3.0,    0.6,   -0.1,   -0.2,   -0.0,    0.0,    0.1,   -0.1,    0.1,   -0.2,    0.0,    0.1,    0.0,   -0.1,    0.1,   -0.1,   -0.3,    0.0,   -0.1,   -0.2,   -0.1,    0.0,   -0.0,    0.1,    0.2,    0.0,   -0.1,   -0.0,    0.1,    0.0,    0.1,   -0.1,    0.0,    0.2,   -0.0,   -0.0,    0.0,   -0.0,   -0.0,   -0.0,    0.0,    0.0,   -0.2,   -0.1,   -0.0,  999.0,  999.0,  999.0,   -0.6,  999.0,   -0.7,    0.2,  999.0,  999.0,  999.0,  999.0,  999.0
2016/03/20 15:50,  999.0,  999.0,    0.1,   -0.1,   -0.0,   -0.2,    0.0,  999.0,    0.0,    0.0,    0.0,   -0.0,   -0.1,   -0.0,   -0.2,    0.1,    0.0,    0.1,    0.1,    0.1,    0.6,    2.7,    3.8,    2.3,    1.9,    0.4,    0.2,   -0.0,   -0.0,   -0.1,    0.1,    0.2,   -0.1,   -0.1,   -0.0,    0.0,    0.3,    0.1,   -0.0,    0.1,   -0.2,   -0.1,    0.1,   -0.1,   -0.1,    0.0,    0.0,   -0.1,   -0.0,    0.0,    0.3,    0.2,    0.0,   -0.2,   -0.1,   -0.2,   -0.0,   -0.1,    0.0,    0.1,    0.0,   -0.3,    0.2,    0.5,    0.0,   -0.2,  999.0,   -0.3,   -0.1,   -0.2,    0.0,   -0.0,  999.0,  999.0,  999.0,  999.0,  999.0,  999.0,  999.0,  999.0
2016/03/20 16:00,  999.0,  999.0,   -0.2,    0.0,    0.8,    0.1,   -0.1,   -0.0,    0.1,   -0.1,    0.1,    0.2,    0.1,    0.2,    0.1,    0.1,    0.0,    0.0,   -0.1,    0.1,    0.7,    0.0,    0.1,    0.4,  999.0,   -0.2,    0.3,    0.1,   -0.0,   -0.0,    0.1,   -0.0,   -0.4,   -0.2,   -0.0,   -0.2,    0.1,    0.3,    0.1,   -0.1,   -0.2,   -0.1,   -0.1,    0.1,    0.1,    0.1,    0.1,   -0.0,    0.0,    0.0,    0.2,    0.0,    0.1,   -0.0,    0.1,    0.1,   -0.1,    0.0,   -0.1,   -0.2,   -0.2,   -0.0,   -0.5,   -0.0,   -0.2,    0.0,  999.0,   -0.2,  999.0,    0.3,  999.0,   -0.6,   -0.2,  999.0,   -0.0,  999.0,  999.0,  999.0,  999.0,  999.0
2016/03/20 16:10,  999.0,    0.1,   -0.1,    0.1,    0.1,   -0.0,   -0.1,    0.0,    0.1,    0.2,    0.2,    0.1,    0.1,    0.1,    0.1,    0.2,    0.2,    0.3,    0.5,    0.7,    0.5,    0.3,   -0.1,   -0.2,    0.3,    0.4,   -0.0,   -0.0,    0.2,   -0.1,    0.1,    0.1,   -0.0,    0.1,    0.0,    0.1,    0.1,   -0.0,    0.0,   -0.1,   -0.1,   -0.1,   -0.0,   -0.1,   -0.0,    0.0,    0.1,    0.2,    0.0,   -0.1,   -0.0,   -0.1,   -0.2,    0.0,   -0.2,    0.1,   -0.0,    0.0,   -0.1,   -0.3,    0.1,   -0.2,   -0.0,    0.1,   -0.1,   -0.1,  999.0,  999.0,    0.2,   -0.0,   -0.1,  999.0,  999.0,  999.0,  999.0,  999.0,  999.0,  999.0,  999.0,  999.0
2016/03/20 16:20,  999.0,   -0.0,    0.2,    0.0,    0.0,   -0.0,   -0.2,  999.0,   -0.1,   -0.0,   -0.1,   -0.0,    0.1,   -0.1,   -0.2,    0.1,   -0.0,    0.3,    0.5,    0.8,    1.6,    0.9,    0.9,    0.0,   -0.1,    0.1,   -0.2,   -0.0,   -0.1,   -0.0,   -0.2,   -0.1,   -0.1,    0.2,    0.0,    0.1,    0.1,   -0.1,    0.2,    0.0,   -0.2,   -0.1,    0.1,    0.0,    0.1,   -0.1,   -0.2,   -0.1,    0.0,    0.3,    0.2,    0.0,    0.2,    0.0,   -0.1,   -0.0,   -0.0,   -0.0,    0.1,    0.4,   -0.5,   -0.2,   -0.4,    0.5,    0.2,    0.1,  999.0,    0.1,   -0.2,  999.0,    0.1,  999.0,  999.0,   -0.1,    0.2,  999.0,  999.0,  999.0,  999.0,  999.0
2016/03/20 16:30,  999.0,  999.0,    0.0,    0.1,  999.0,    0.0,  999.0,   -0.1,   -0.0,    0.2,    0.1,    0.1,    0.2,    0.4,    0.2,    0.5,    0.4,    0.4,    0.4,    1.2,    2.0,    3.3,    0.6,   -0.2,   -0.1,   -0.2,   -0.1,    0.0,   -0.1,    0.1,   -0.1,   -0.4,   -0.1,   -0.0,   -0.0,   -0.1,    0.1,    0.2,    0.1,    0.1,   -0.1,   -0.3,   -0.2,    0.1,    0.0,    0.1,    0.1,   -0.0,    0.3,   -0.0,   -0.1,    0.1,   -0.1,    0.0,   -0.0,   -0.3,   -0.0,   -0.1,    0.4,    0.1,   -0.1,   -0.1,    0.1,    0.1,   -0.1,   -0.1,   -0.4,   -0.3,    0.3,   -0.3,  999.0,    0.2,  999.0,  999.0,    0.1,    0.4,  999.0,  999.0,  999.0,  999.0
2016/03/20 16:40,  999.0,  999.0,   -0.2,   -0.2,    0.1,    0.1,    0.1,    0.1,   -0.1,    0.0,    0.0,   -0.0,    0.1,    0.0,   -0.1,    0.2,    0.3,    0.3,    0.3,    0.3,    1.0,    1.6,    1.5,    1.0,    0.6,   -0.2,   -0.1,   -0.1,   -0.1,   -0.1,   -0.0,    0.1,    0.1,    0.0,   -0.0,    0.1,    0.1,   -0.1,   -0.1,   -0.2,   -0.1,   -0.1,    0.1,   -0.0,   -0.1,    0.1,    0.1,    0.0,    0.2,    0.0,    0.4,    0.2,    0.1,   -0.1,    0.0,   -0.1,    0.1,   -0.0,   -0.1,    0.0,    0.1,    0.3,    0.2,    0.0,   -0.4,    0.2,   -0.2,   -0.3,    0.0,    0.1,   -0.1,    0.1,  999.0,   -0.3,    0.1,  999.0,  999.0,  999.0,  999.0,  999.0
2016/03/20 16:50,  999.0,    0.0,   -0.0,    0.1,   -0.1,  999.0,  999.0,    0.0,   -0.0,   -0.1,   -0.1,   -0.1,   -0.0,    0.2,    0.5,    0.1,   -0.1,    0.2,   -0.0,    0.1,   -0.6,    1.6,  999.0,  999.0,    0.3,    0.2,   -0.0,   -0.1,    0.1,    0.0,    0.0,   -0.0,    0.0,   -0.1,   -0.0,   -0.1,   -0.2,    0.0,    0.1,    0.1,   -0.2,   -0.2,   -0.1,    0.0,   -0.3,   -0.1,    0.1,   -0.0,   -0.0,   -0.0,    0.1,    0.2,   -0.0,    0.2,   -0.0,   -0.1,   -0.2,   -0.4,    0.2,  999.0,   -0.1,   -0.1,   -0.2,   -0.1,    0.4,   -0.2,   -0.1,   -0.1,  999.0,  999.0,   -0.0,  999.0,  999.0,    0.2,   -0.2,   -0.1,  999.0,  999.0,  999.0,  999.0
2016/03/20 17:00,  999.0,  999.0,   -0.1,    0.1,    0.1,    0.0,   -0.0,    0.1,    0.0,    0.1,    0.3,    0.2,    0.4,    0.6,    0.8,    0.6,    0.5,    1.1,    1.5,    1.8,    1.4,    1.7,  999.0,    0.6,   -0.0,    0.2,   -0.0,    0.0,    0.0,   -0.1,   -0.1,    0.1,   -0.2,   -0.0,   -0.3,   -0.1,   -0.0,    0.1,   -0.3,   -0.0,   -0.3,   -0.0,   -0.0,   -0.1,    0.0,    0.0,    0.1,    0.2,    0.2,  999.0,    0.1,   -0.0,   -0.1,    0.1,    0.0,    0.0,    0.2,  999.0,    0.0,    0.7,   -0.2,   -0.2,   -0.3,   -0.3,    0.0,   -0.1,  999.0,  999.0,  999.0,  999.0,   -0.1,   -0.1,  999.0,  999.0,   -0.0,  999.0,  999.0,  999.0,  999.0,  999.0
2016/03/20 17:10,  999.0,  999.0,   -0.1,    0.1,    0.0,    0.2,    0.1,   -0.2,    0.1,    0.2,    0.2,    0.3,    0.5,    0.7,    0.7,    0.3,    0.2,    0.7,    0.9,    1.5,    1.6,    0.6,   -1.1,   -0.1,    0.2,    0.1,    0.0,   -0.1,    0.1,    0.1,    0.1,    0.3,    0.1,   -0.1,   -0.1,    0.2,   -0.1,    0.1,    0.1,   -0.1,   -0.1,   -0.2,   -0.1,   -0.1,    0.0,    0.2,    0.1,    0.0,    0.0,    0.2,    0.1,    0.0,    0.3,   -0.0,   -0.1,   -0.1,    0.2,    0.1,    0.0,    0.4,    0.3,    0.5,    0.5,    0.0,   -0.1,  999.0,    0.4,    0.0,   -0.2,  999.0,  999.0,    0.2,   -0.0,  999.0,   -0.5,  999.0,  999.0,  999.0,  999.0,  999.0
2016/03/20 17:20,  999.0,  999.0,   -0.1,   -0.2,   -0.1,   -0.1,   -0.2,    0.0,    0.2,    0.1,    0.1,    0.0,    0.2,    0.1,    0.0,    0.1,    0.2,    0.4,   -0.0,    1.0,    0.2,    0.2,  999.0,   -0.2,    0.0,    0.1,   -0.1,    0.1,    0.1,   -0.1,   -0.2,    0.1,    0.1,    0.1,   -0.0,    0.1,   -0.0,    0.0,    0.1,    0.0,   -0.2,   -0.1,   -0.1,    0.1,    0.1,   -0.1,   -0.0,   -0.0,   -0.1,    0.2,   -0.1,   -0.2,   -0.0,    0.0,    0.1,    0.1,    0.0,   -0.0,    0.0,   -0.1,    0.2,    0.0,   -0.1,    0.2,    0.2,    0.3,    0.2,    0.1,    0.3,  999.0,   -0.1,    0.0,  999.0,   -0.0,   -0.3,  999.0,  999.0,  999.0,  999.0,  999.0
2016/03/20 17:30,  999.0,  999.0,   -0.1,   -0.5,   -0.0,   -0.2,    0.1,    0.1,   -0.0,   -0.3,   -0.0,    0.1,    0.3,    0.4,    0.5,    0.4,    0.2,    0.3,    0.4,    0.9,    0.6,    0.1,    0.3,    0.7,    0.2,    0.1,    0.0,    0.2,    0.1,   -0.1,   -0.2,   -0.2,   -0.0,    0.1,   -0.0,    0.0,   -0.1,    0.0,   -0.1,   -0.0,   -0.2,   -0.2,   -0.1,   -0.2,    0.0,   -0.1,    0.0,   -0.0,   -0.0,    0.1,    0.1,   -0.1,   -0.1,   -0.1,   -0.1,   -0.0,   -0.1,    0.3,   -0.1,  999.0,   -0.2,  999.0,   -0.3,   -0.1,    0.2,   -0.2,    0.2,   -0.2,    0.3,   -0.1,  999.0,  999.0,  999.0,    0.5,   -0.1,  999.0,  999.0,  999.0,  999.0,  999.0
2016/03/20 17:40,  999.0,    0.0,    0.1,    0.2,    0.2,    0.1,   -0.0,   -0.0,    0.1,    0.3,    0.3,    0.4,    0.8,    1.0,    0.8,    0.7,    1.1,    1.7,    1.8,    1.3,    0.1,   -0.3,   -0.0,   -0.0,    0.1,   -0.1,   -0.1,   -0.0,    0.2,   -0.1,   -0.1,    0.1,   -0.0,    0.1,    0.2,   -0.0,   -0.0,    0.1,    0.2,   -0.0,   -0.1,    0.0,   -0.1,    0.1,    0.0,    0.1,   -0.0,    0.0,    0.0,    0.3,    0.1,   -0.2,    0.1,   -0.1,   -0.2,   -0.1,   -0.0,   -0.1,   -0.1,   -0.5,    0.3,   -0.1,    0.3,    0.1,   -0.0,    0.3,    0.4,    0.2,  999.0,  999.0,  999.0,  999.0,   -0.3,  999.0,    0.0,  999.0,  999.0,  999.0,  999.0,  999.0
2016/03/20 17:50,  999.0,   -0.1,   -0.2,    0.0,    0.3,    0.2,    0.1,   -0.0,    0.1,    0.1,    0.2,    0.3,    0.4,    0.9,    0.7,    0.7,    0.7,    2.0,    2.0,    2.6,    1.7,    0.6,    0.1,    0.0,    0.0,    0.0,   -0.1,    0.1,    0.1,   -0.0,   -0.2,    0.0,   -0.1,    0.1,   -0.4,   -0.0,   -0.1,    0.1,   -0.1,   -0.0,   -0.2,   -0.2,   -0.1,    0.1,   -0.2,   -0.2,   -0.0,    0.1,    0.1,    0.1,    0.2,    0.2,    0.0,   -0.0,    0.1,    0.0,    0.4,   -0.2,   -0.3,   -0.4,    0.2,   -0.1,   -0.3,    0.2,   -0.0,    0.1,  999.0,    0.0,   -0.0,    0.1,   -0.1,  999.0,   -0.0,    0.4,    0.2,  999.0,  999.0,  999.0,  999.0,  999.0
2016/03/20 18:00,  999.0,   -0.1,    0.0,    0.1,    0.3,    0.2,    0.3,    0.0,    0.1,    0.4,    0.7,    1.0,    1.1,    0.5,    0.3,    0.7,    1.3,    1.3,    0.8,    1.3,    0.4,   -0.6,   -0.1,    0.1,   -0.0,    0.0,   -0.1,    0.0,   -0.3,   -0.0,   -0.0,    0.0,   -0.1,   -0.3,   -0.2,   -0.1,   -0.0,    0.1,    0.0,   -0.0,   -0.2,   -0.2,   -0.0,    0.0,   -0.0,   -0.0,   -0.0,   -0.0,   -0.0,   -0.2,   -0.1,   -0.1,   -0.0,   -0.1,   -0.1,    0.2,    0.1,    0.1,   -0.1,    0.0,   -0.1,   -0.0,   -0.5,    0.2,    0.2,   -0.1,    0.2,    0.3,  999.0,    0.3,  999.0,    0.1,    0.1,    0.3,   -0.2,  999.0,  999.0,  999.0,  999.0,  999.0
2016/03/20 18:10,  999.0,    0.1,    0.0,    0.0,    0.2,    0.1,   -0.0,    0.3,    0.1,    0.2,    0.8,    1.6,    1.3,    0.8,    0.9,    1.1,    1.6,    1.8,    0.9,    0.4,    0.1,   -0.1,    0.0,    0.1,    0.2,    0.1,    0.1,    0.1,   -0.0,   -0.2,   -0.1,    0.2,    0.1,   -0.2,   -0.0,    0.0,    0.0,   -0.1,   -0.0,   -0.1,   -0.1,   -0.3,    0.1,    0.0,   -0.1,   -0.2,   -0.1,    0.1,   -0.0,    0.1,    0.0,    0.1,    0.0,   -0.1,    0.1,   -0.0,    0.1,    0.1,   -0.2,   -0.1,   -0.4,    0.0,   -0.3,  999.0,  999.0,    0.2,    0.1,   -0.0,    0.1,    0.1,    0.0,   -0.1,   -0.1,   -0.1,    0.1,  999.0,  999.0,  999.0,  999.0,  999.0
2016/03/20 18:20,  999.0,  999.0,   -0.1,    0.1,    0.1,    0.1,    0.2,    0.1,    0.2,    0.3,    0.4,    0.6,    0.6,    1.0,    1.0,    1.5,    1.4,    1.4,    0.5,    0.5,    0.4,    0.0,    0.0,    0.1,    0.1,    0.2,   -0.0,    0.1,    0.2,   -0.0,    0.2,    0.0,   -0.2,   -0.0,   -0.0,    0.0,   -0.1,    0.0,    0.3,   -0.1,   -0.2,   -0.0,   -0.1,   -0.1,    0.0,    0.1,    0.1,    0.1,    0.0,   -0.2,   -0.1,   -0.0,    0.2,    0.0,    0.1,    0.1,   -0.1,   -0.2,    0.1,    0.2,    0.0,    0.1,    0.2,   -0.1,   -0.2,   -0.1,   -0.0,    0.2,    0.3,   -0.3,    0.2,    0.0,    0.0,   -0.1,    0.1,  999.0,  999.0,  999.0,  999.0,  999.0
2016/03/20 18:30,  999.0,    0.0,  999.0,    0.0,   -0.1,  999.0,    0.2,    0.0,    0.1,    0.2,    0.3,    0.3,    0.1,    0.1,    0.2,    0.3,    0.3,    0.6,    1.1,    1.4,    1.3,    1.4,    0.1,    0.0,   -0.0,   -0.0,   -0.0,    0.0,    0.2,   -0.0,   -0.2,   -0.2,    0.0,    0.1,    0.1,    0.1,   -0.0,    0.0,    0.1,   -0.1,   -0.1,   -0.0,   -0.0,    0.0,   -0.0,    0.0,   -0.1,    0.0,   -0.1,    0.1,   -0.0,   -0.0,   -0.0,    0.1,    0.0,   -0.1,    0.1,    0.0,   -0.2,    0.2,   -0.0,   -0.2,    0.3,    0.3,   -0.2,    0.1,   -0.1,   -0.0,  999.0,   -0.1,    0.1,   -0.0,    0.1,    0.4,    0.1,  999.0,  999.0,  999.0,  999.0,  999.0
2016/03/20 18:40,  999.0,  999.0,   -0.0,    0.2,    0.1,  999.0,    0.1,    0.0,    0.1,    0.0,    0.4,    0.7,    0.2,    0.2,  999.0,    0.1,    0.4,    1.0,    1.3,    2.3,    1.8,    1.3,    0.6,    0.0,   -0.0,   -0.1,   -0.0,   -0.0,   -0.3,    0.1,   -0.1,   -0.1,    0.0,    0.0,   -0.0,   -0.0,    0.0,   -0.0,   -0.1,    0.0,   -0.1,   -0.2,    0.0,   -0.1,   -0.2,   -0.0,   -0.1,    0.1,   -0.1,   -0.0,    0.0,    0.1,   -0.0,    0.0,   -0.0,    0.0,   -0.1,   -0.0,    0.1,   -0.1,    0.2,   -0.1,    0.1,    0.2,   -0.0,    0.1,    0.3,   -0.3,   -0.1,    0.1,    0.2,   -0.1,   -0.0,   -0.0,   -0.0,  999.0,  999.0,  999.0,  999.0,  999.0
2016/03/20 18:50,  999.0,  999.0,   -0.3,   -0.1,   -0.1,    0.1,   -0.1,    0.1,   -0.0,    0.3,    0.5,    0.2,    0.0,    0.2,    0.0,  999.0,    0.2,    0.6,    1.5,    2.0,  999.0,    1.5,    0.1,  999.0,    0.1,    0.1,    0.0,   -0.0,   -0.0,    0.1,   -0.1,   -0.0,   -0.0,   -0.0,    0.1,   -0.0,    0.0,    0.1,    0.1,    0.0,   -0.0,   -0.0,    0.1,    0.0,   -0.1,   -0.2,   -0.1,   -0.1,    0.3,   -0.0,    0.0,    0.1,    0.0,   -0.0,   -0.1,   -0.1,    0.0,    0.1,    0.0,   -0.0,   -0.2,    0.0,    0.4,   -0.2,   -0.1,    0.2,    0.1,    0.1,   -0.2,   -0.0,   -0.0,    0.1,   -0.1,    0.0,   -0.3,  999.0,  999.0,  999.0,  999.0,  999.0
2016/03/20 19:00,  999.0,  999.0,    0.1,   -0.3,   -0.2,   -0.1,    0.0,   -0.1,    0.2,    0.2,    0.2,    0.4,    0.5,    0.7,    0.4,    0.2,    0.4,    0.6,    0.9,    1.0,    0.5,    0.9,   -0.1,    0.1,   -0.1,    0.0,   -0.0,    0.1,    0.3,    0.1,    0.0,    0.0,    0.1,   -0.0,   -0.0,   -0.0,    0.0,    0.1,    0.0,   -0.0,   -0.1,   -0.1,    0.0,   -0.0,    0.2,    0.1,    0.0,   -0.0,    0.0,    0.0,    0.0,    0.2,   -0.1,    0.0,    0.0,    0.1,    0.0,    0.1,    0.1,   -0.2,   -0.0,   -0.1,    0.1,    0.2,    0.3,    0.2,   -0.1,   -0.4,   -0.1,   -0.1,  999.0,    0.1,   -0.1,   -0.1,    0.0,  999.0,  999.0,  999.0,  999.0,  999.0
2016/03/20 19:10,  999.0,  999.0,   -0.2,   -0.1,   -0.3,    0.3,    0.3,    0.4,    0.2,    0.2,    0.4,    0.3,    0.4,    0.3,    0.2,    0.3,    0.4,    0.6,    0.8,    1.5,    2.5,    1.0,  999.0,   -0.2,  999.0,    0.1,   -0.0,   -0.1,    0.2,    0.3,    0.0,    0.1,    0.1,    0.2,    0.0,    0.0,   -0.1,   -0.0,    0.1,    0.2,   -0.1,   -0.1,    0.1,   -0.1,   -0.1,   -0.1,    0.0,    0.0,   -0.1,   -0.0,   -0.1,    0.1,    0.2,   -0.2,    0.0,   -0.2,   -0.3,    0.0,   -0.0,   -0.0,   -0.1,    0.0,   -0.1,    0.1,   -0.2,   -0.1,    0.4,    0.0,   -0.2,  999.0,    0.1,   -0.2,    0.0,   -0.1,   -0.0,  999.0,  999.0,  999.0,  999.0,  999.0
2016/03/20 19:20,  999.0,  999.0,   -0.0,   -0.2,    0.2,    0.3,    0.1,    0.2,    0.1,   -0.4,    0.1,   -0.0,    0.0,    0.0,    0.0,   -0.1,   -0.1,  999.0,    0.2,    0.1,   -0.0,   -0.2,   -0.8,  999.0,  999.0,   -0.2,   -0.1,    0.0,    0.0,   -0.1,   -0.0,    0.0,    0.1,   -0.0,   -0.1,   -0.1,    0.1,    0.1,    0.1,   -0.0,   -0.1,   -0.2,   -0.0,    0.0,   -0.1,   -0.2,    0.0,    0.1,    0.1,   -0.2,   -0.1,   -0.0,   -0.0,    0.1,   -0.0,   -0.1,   -0.1,    0.0,   -0.1,    0.0,    0.0,    0.1,   -0.0,   -0.0,   -0.0,    0.1,    0.0,   -0.2,  999.0,   -0.0,    0.1,    0.2,    0.1,    0.1,    0.1,  999.0,  999.0,  999.0,  999.0,  999.0
2016/03/20 19:30,  999.0,  999.0,  999.0,   -0.1,   -0.1,  999.0,   -0.1,   -0.1,    0.1,    0.0,   -0.1,   -0.0,    0.1,   -0.2,   -0.0,    0.1,    0.1,   -0.1,   -0.3,  999.0,  999.0,  999.0,   -0.4,   -0.2,   -0.1,   -0.2,   -0.0,    0.2,    0.1,    0.1,   -0.1,   -0.1,   -0.0,   -0.1,   -0.0,   -0.1,   -0.1,    0.0,    0.1,    0.0,   -0.1,   -0.0,    0.1,    0.1,   -0.0,   -0.0,   -0.1,    0.0,    0.1,    0.0,   -0.0,    0.1,    0.0,   -0.1,    0.1,    0.0,    0.0,    0.0,   -0.2,    0.1,   -0.1,    0.1,    0.0,    0.0,    0.2,    0.1,    0.2,    0.1,   -0.0,  999.0,    0.0,   -0.2,    0.1,   -0.1,    0.2,  999.0,  999.0,  999.0,  999.0,  999.0
2016/03/20 19:40,  999.0,  999.0,    0.1,   -0.1,    0.0,  999.0,    0.2,    0.1,    0.4,    0.5,    0.2,    0.1,  999.0,  999.0,    0.2,  999.0,  999.0,  999.0,  999.0,    0.4,   -0.1,    0.1,    0.1,   -0.0,    0.0,    0.0,    0.1,    0.0,   -0.2,    0.1,   -0.0,    0.0,   -0.0,    0.1,   -0.3,   -0.1,   -0.1,   -0.1,    0.0,    0.2,    0.0,   -0.1,   -0.1,    0.1,    0.0,   -0.3,   -0.2,   -0.0,    0.1,    0.0,   -0.0,   -0.0,   -0.1,   -0.1,   -0.1,   -0.3,    0.1,   -0.1,   -0.2,   -0.2,   -0.4,   -0.1,    0.2,   -0.2,    0.0,    0.0,    0.1,   -0.1,   -0.1,    0.0,   -0.1,    0.0,    0.1,   -0.1,   -0.1,  999.0,  999.0,  999.0,  999.0,  999.0
2016/03/20 19:50,  999.0,  999.0,    0.0,    0.2,  999.0,    0.2,  999.0,   -0.0,    0.1,    0.2,    0.2,    0.2,    0.3,    0.1,   -0.0,    0.0,  999.0,  999.0,    0.6,    0.3,   -0.0,   -0.0,    0.0,   -0.1,    0.0,   -0.1,   -0.1,    0.0,   -0.0,    0.0,    0.2,    0.0,   -0.0,    0.0,    0.1,    0.0,    0.0,    0.0,    0.2,    0.1,   -0.1,   -0.1,   -0.1,   -0.1,    0.0,   -0.1,   -0.1,   -0.1,    0.1,    0.0,   -0.1,   -0.2,   -0.1,   -0.1,   -0.1,   -0.0,    0.1,    0.1,   -0.1,    0.0,   -0.0,   -0.1,    0.0,    0.1,    0.1,    0.1,   -0.1,    0.1,    0.2,   -0.0,  999.0,   -0.1,    0.1,   -0.0,   -0.2,  999.0,  999.0,  999.0,  999.0,  999.0
2016/03/20 20:00,  999.0,  999.0,   -0.1,  999.0,   -0.0,    0.0,    0.0,   -0.1,    0.1,    0.3,    0.2,    0.3,    0.1,    0.3,    0.1,  999.0,    0.2,    0.4,  999.0,  999.0,   -0.0,   -0.1,   -0.1,   -0.1,   -0.0,   -0.0,   -0.1,   -0.0,    0.1,    0.0,    0.0,    0.0,    0.0,    0.0,   -0.1,    0.0,   -0.1,    0.0,   -0.1,    0.0,    0.0,    0.1,   -0.0,    0.2,   -0.1,   -0.0,   -0.1,    0.1,    0.0,   -0.0,   -0.1,   -0.2,   -0.2,   -0.0,    0.1,   -0.0,   -0.0,   -0.1,    0.0,   -0.1,    0.1,    0.1,    0.2,   -0.0,    0.2,    0.1,   -0.3,   -0.3,    0.1,    0.0,   -0.1,   -0.2,   -0.0,   -0.3,    0.0,  999.0,  999.0,  999.0,  999.0,  999.0
2016/03/20 20:10,  999.0,  999.0,   -0.1,  999.0,  999.0,  999.0,  999.0,  999.0,  999.0,    0.1,    0.1,    0.2,    0.2,    0.2,    0.1,    0.2,    0.3,  999.0,  999.0,  999.0,   -0.0,   -0.1,   -0.0,   -0.0,    0.0,   -0.1,    0.1,    0.1,    0.0,   -0.1,    0.0,   -0.1,    0.1,   -0.0,    0.0,   -0.0,    0.1,    0.1,   -0.0,    0.0,   -0.2,   -0.1,   -0.0,    0.1,    0.0,   -0.1,    0.1,    0.1,    0.1,    0.2,   -0.1,   -0.2,    0.1,    0.3,    0.0,   -0.1,   -0.0,   -0.2,    0.2,   -0.1,   -0.0,   -0.0,   -0.3,    0.1,    0.1,   -0.0,   -0.1,   -0.3,    0.1,    0.3,    0.2,    0.1,   -0.1,    0.2,   -0.3,  999.0,  999.0,  999.0,  999.0,  999.0
2016/03/20 20:20,  999.0,  999.0,  999.0,    0.0,  999.0,    0.1,  999.0,   -0.1,    0.0,    0.3,    0.3,    0.0,    0.1,    0.1,    0.0,    0.2,    0.4,    0.5,    0.6,    0.5,    0.2,    0.4,    0.2,    0.1,    0.0,    0.1,    0.1,   -0.1,    0.1,   -0.1,   -0.1,   -0.0,   -0.0,   -0.1,    0.1,   -0.1,   -0.3,   -0.1,   -0.0,   -0.2,   -0.4,   -0.1,    0.3,   -0.1,   -0.1,   -0.0,    0.2,    0.2,    0.1,    0.1,   -0.0,   -0.1,   -0.1,    0.1,   -0.0,    0.2,    0.0,   -0.1,    0.1,   -0.2,   -0.1,   -0.0,   -0.1,    0.1,   -0.1,   -0.0,   -0.1,   -0.0,    0.0,   -0.1,    0.1,    0.0,    0.1,  999.0,    0.0,  999.0,  999.0,  999.0,  999.0,  999.0
2016/03/20 20:30,  999.0,  999.0,   -0.1,   -0.0,  999.0,    0.2,    0.0,    0.1,    0.1,    0.2,    0.5,    0.5,    0.5,    0.4,    0.7,    1.1,    0.6,    0.7,    0.7,    0.3,    0.1,    0.1,   -0.1,    0.1,   -0.1,    0.0,   -0.1,   -0.1,    0.1,    0.0,    0.1,   -0.0,   -0.0,    0.2,    0.2,    0.1,    0.0,    0.1,    0.1,  999.0,   -0.2,  999.0,    0.3,   -0.1,    0.2,    0.2,    0.2,    0.1,    0.2,  999.0,  999.0,  999.0,   -0.2,   -0.1,    0.1,  999.0,   -0.1,    0.1,    0.3,    0.2,   -0.2,   -0.2,    0.2,    0.3,  999.0,    0.1,    0.1,    0.2,  999.0,   -0.1,  999.0,   -0.0,   -0.0,   -0.4,   -0.2,  999.0,  999.0,  999.0,  999.0,  999.0
2016/03/20 20:40,  999.0,    0.1,    0.1,   -0.1,    0.2,   -0.1,    0.1,   -0.3,   -0.3,    0.1,    0.3,    0.2,    0.3,    0.3,    0.3,    0.5,    0.5,    0.6,    0.5,    0.7,    0.6,    0.4,    0.5,    0.3,    0.0,    0.1,    0.2,    0.0,    0.1,    0.1,    0.1,   -0.1,   -0.2,   -0.1,   -0.1,   -0.2,    0.0,   -0.1,   -0.3,    0.0,   -0.3,   -0.3,   -0.1,   -0.0,   -0.1,    0.0,    0.2,    0.1,   -0.0,   -0.1,   -0.3,   -0.5,  999.0,  999.0,   -0.2,    0.0,    0.2,  999.0,   -0.0,    0.2,   -0.1,   -0.4,  999.0,  999.0,    0.1,  999.0,   -0.2,    0.1,  999.0,  999.0,    0.1,    0.2,   -0.1,  999.0,   -0.1,  999.0,  999.0,  999.0,  999.0,  999.0
2016/03/20 20:50,  999.0,    0.0,    0.0,    0.3,    0.1,    0.1,    0.1,   -0.0,    0.3,    0.3,    0.4,    0.2,    0.2,    0.2,   -0.0,    0.2,    0.3,    0.7,    1.3,    1.7,    0.9,    0.7,    0.3,    0.1,    0.1,   -0.1,    0.1,    0.2,   -0.0,    0.1,   -0.1,    0.1,   -0.0,   -0.1,    0.3,    0.1,    0.2,  999.0,  999.0,    0.0,    0.0,    0.0,    0.0,   -0.1,   -0.3,    0.0,   -0.2,   -0.4,    0.3,   -0.1,    0.1,    0.1,    0.0,  999.0,   -0.8,   -0.4,   -0.2,    0.0,   -0.2,   -0.2,  999.0,  999.0,    0.2,  999.0,   -0.5,    0.2,    0.4,    0.1,   -0.3,  999.0,   -0.2,   -0.0,  999.0,   -0.2,  999.0,  999.0,  999.0,  999.0,  999.0,  999.0
2016/03/20 21:00,  999.0,    0.1,    0.1,    0.3,    0.5,    0.2,    0.2,    0.2,    0.1,    0.4,    0.3,    0.1,    0.1,    0.1,    0.1,    0.0,    0.1,    0.2,    0.6,    1.1,    0.4,    0.4,    0.2,    0.3,    0.2,   -0.1,    0.1,    0.3,    0.1,    0.1,   -0.1,    0.1,    0.0,  999.0,   -0.1,   -0.0,    0.3,    0.3,   -0.1,   -0.1,   -0.1,   -0.2,    0.1,    0.0,    0.0,   -0.1,   -0.1,    0.1,   -0.3,    0.1,   -0.1,   -0.0,   -0.1,  999.0,  999.0,   -0.3,   -0.2,  999.0,    0.1,   -0.3,  999.0,    0.5,    0.0,    0.1,    0.3,    0.1,   -0.0,  999.0,  999.0,  999.0,    0.2,  999.0,  999.0,   -0.2,  999.0,  999.0,  999.0,  999.0,  999.0,  999.0
2016/03/20 21:10,  999.0,   -0.0,    0.1,   -0.0,   -0.1,    0.1,    0.3,    0.3,    0.1,    0.3,    0.5,    0.4,    0.3,    0.3,    0.4,    0.4,    0.2,    0.6,    1.0,    2.0,    2.4,    1.2,    1.4,    0.9,    0.3,    0.1,    0.1,    0.2,    0.1,    0.0,    0.1,    0.2,    0.1,   -0.1,    0.1,    0.2,    0.2,    0.1,   -0.1,    0.0,    0.0,   -0.0,   -0.1,   -0.0,    0.1,   -0.2,   -0.0,   -0.0,    0.1,    0.2,    0.2,   -0.2,  999.0,  999.0,    0.0,   -0.2,    0.0,    0.2,   -0.4,  999.0,   -0.1,   -0.3,  999.0,  999.0,    0.2,  999.0,  999.0,    0.2,  999.0,  999.0,   -0.3,   -0.4,    0.2,   -0.0,  999.0,  999.0,  999.0,  999.0,  999.0,  999.0
2016/03/20 21:20,  999.0,    0.1,    0.1,   -0.0,    0.1,    0.0,   -0.0,   -0.1,   -0.0,    0.0,    0.3,    0.5,    0.3,    0.3,    0.1,    0.0,    0.1,    0.7,    2.3,  999.0,    0.7,    0.8,    0.5,    0.3,    0.3,    0.2,    0.1,   -0.1,    0.1,    0.1,   -0.1,   -0.0,    0.2,    0.2,    0.1,   -0.1,    0.3,  999.0,    0.0,    0.1,    0.0,   -0.1,   -0.2,   -0.2,    0.1,   -0.0,    0.0,    0.0,    0.2,   -0.1,  999.0,  999.0,   -0.0,   -0.0,   -0.5,  999.0,    0.0,  999.0,   -0.0,    0.0,  999.0,    0.1,    0.0,   -0.0,  999.0,  999.0,   -0.2,  999.0,   -0.3,  999.0,   -0.3,  999.0,    0.1,    0.2,  999.0,  999.0,  999.0,  999.0,  999.0,  999.0
2016/03/20 21:30,  999.0,    0.1,   -0.1,   -0.0,   -0.2,    0.1,    0.1,    0.0,    0.0,   -0.1,   -0.1,    0.0,   -0.0,    0.1,   -0.0,    0.1,    0.2,    0.7,    1.2,    1.6,    0.7,    0.6,    0.3,    0.1,    0.1,    0.3,    0.0,   -0.1,    0.1,    0.0,   -0.0,    0.1,    0.1,    0.0,   -0.0,    0.3,    0.1,    0.0,   -0.4,   -0.6,   -0.6,   -0.3,    0.0,    0.1,    0.1,   -0.1,   -0.1,    0.1,   -0.1,  999.0,   -0.0,  999.0,  999.0,    0.3,   -0.1,  999.0,   -0.2,  999.0,   -0.1,    0.1,    0.3,   -0.2,    0.1,    0.1,   -0.1,   -0.1,  999.0,   -0.1,   -0.4,  999.0,   -0.0,  999.0,   -0.1,  999.0,  999.0,  999.0,  999.0,  999.0,  999.0,  999.0
2016/03/20 21:40,  999.0,  999.0,   -0.1,    0.1,    0.1,    0.2,    0.5,    0.2,    0.3,    0.1,    0.1,    0.2,    0.4,    0.3,    0.2,   -0.1,   -0.1,    0.5,    0.5,    1.0,    0.1,   -0.4,    0.1,    0.0,   -0.0,   -0.1,   -0.0,    0.1,   -0.1,    0.0,   -0.1,    0.1,   -0.1,    0.1,    0.1,    0.3,    0.1,    0.1,   -0.0,    0.2,   -0.2,   -0.4,  999.0,    0.1,   -0.0,   -0.0,   -0.0,    0.1,   -0.0,  999.0,   -0.1,   -0.4,    0.2,  999.0,    0.0,   -0.2,   -0.4,   -0.2,   -0.1,  999.0,  999.0,  999.0,  999.0,   -0.0,    0.3,  999.0,    0.2,    0.3,   -0.1,  999.0,  999.0,    0.1,    0.1,  999.0,   -0.2,  999.0,  999.0,  999.0,  999.0,  999.0
2016/03/20 21:50,  999.0,  999.0,   -0.1,    0.1,   -0.1,    0.1,    0.3,   -0.0,    0.1,   -0.0,    0.0,    0.2,    0.2,    0.1,   -0.1,   -0.3,   -0.3,    0.2,    0.3,    0.5,   -0.2,   -0.5,   -0.3,   -0.3,   -0.1,    0.1,    0.2,    0.2,   -0.0,    0.1,    0.1,    0.1,   -0.0,    0.1,    0.1,   -0.2,    0.1,    0.1,    0.1,    0.1,   -0.2,   -0.2,    0.1,   -0.2,   -0.2,    0.0,   -0.1,   -0.0,   -0.1,   -0.0,   -0.5,    0.0,   -0.0,   -0.7,   -0.3,    0.2,    0.2,    0.1,    0.0,    0.0,    0.0,    0.1,    0.1,    0.1,   -0.3,  999.0,    0.1,    0.2,    0.0,  999.0,    0.1,    0.0,    0.1,    0.0,    0.1,  999.0,  999.0,  999.0,  999.0,  999.0
2016/03/20 22:00,  999.0,  999.0,   -0.1,   -0.1,   -0.2,   -0.1,    0.0,    0.1,  999.0,    0.2,    0.3,    0.2,    0.3,    0.1,   -0.1,    0.1,   -0.0,    0.1,    0.2,    0.6,   -0.1,   -0.0,   -0.2,   -0.3,    0.1,   -0.1,    0.1,   -0.1,    0.1,    0.0,   -0.0,    0.2,   -0.0,    0.0,    0.1,    0.2,    0.1,   -0.1,   -0.1,   -0.2,   -0.6,   -0.5,  999.0,   -0.3,   -0.1,   -0.4,   -0.1,    0.0,   -0.0,    0.1,   -0.1,   -0.1,   -0.2,    0.1,   -0.2,   -0.3,   -0.2,   -0.7,   -0.6,    0.1,   -0.3,    0.2,    0.0,   -0.0,    0.3,  999.0,   -0.2,   -0.2,  999.0,  999.0,  999.0,   -0.2,  999.0,   -0.1,  999.0,  999.0,  999.0,  999.0,  999.0,  999.0
2016/03/20 22:10,  999.0,  999.0,    0.1,    0.2,    0.2,    0.1,    0.0,   -0.0,    0.1,    0.1,    0.2,    0.3,    0.1,    0.1,    0.0,   -0.0,    0.1,    0.5,    1.2,  999.0,    0.4,    0.4,   -0.0,   -0.1,   -0.1,    0.2,    0.2,    0.1,   -0.0,   -0.0,   -0.1,   -0.0,    0.1,    0.3,    0.5,    0.3,    0.0,   -0.0,  999.0,   -0.4,   -0.2,  999.0,  999.0,  999.0,  999.0,    0.1,   -0.0,    0.1,  999.0,  999.0,  999.0,   -0.2,    0.2,    0.3,    0.0,    0.3,    0.2,  999.0,    0.2,    0.2,  999.0,  999.0,    0.1,    0.1,    0.1,  999.0,    0.0,  999.0,   -0.1,  999.0,    0.1,    0.2,  999.0,  999.0,  999.0,  999.0,  999.0,  999.0,  999.0,  999.0
2016/03/20 22:20,  999.0,   -0.2,   -0.0,    0.0,   -0.2,    0.1,   -0.2,   -0.0,    0.1,    0.1,    0.2,    0.2,    0.2,    0.2,    0.2,    0.2,    0.5,    1.2,    2.4,  999.0,    1.4,    1.1,    1.1,    0.3,   -0.0,    0.1,    0.1,    0.0,    0.4,   -0.0,   -0.1,   -0.2,    0.1,    0.2,  999.0,   -0.4,    0.4,   -0.2,  999.0,  999.0,   -0.4,  999.0,    0.0,    0.1,   -0.1,   -0.1,    0.4,   -0.1,   -0.2,    0.1,    0.1,    0.3,    0.0,    0.0,  999.0,  999.0,   -0.2,   -0.6,    0.3,   -0.1,    0.1,    0.2,  999.0,   -0.1,  999.0,   -0.3,  999.0,    0.2,   -0.0,  999.0,    0.0,  999.0,  999.0,   -0.0,  999.0,  999.0,  999.0,  999.0,  999.0,  999.0
2016/03/20 22:30,  999.0,    0.1,   -0.0,   -0.1,   -0.0,   -0.0,    0.1,    0.2,    0.1,    0.2,    0.4,    0.6,    0.4,    0.7,    0.5,    1.0,    1.5,    2.8,    4.8,  999.0,  999.0,    2.9,    2.4,    0.7,    0.7,    0.5,    0.3,    0.1,  999.0,   -0.2,   -0.5,    0.0,    0.1,   -0.1,   -0.2,  999.0,    0.1,  999.0,  999.0,  999.0,   -0.5,  999.0,  999.0,    0.5,  999.0,   -0.2,  999.0,  999.0,  999.0,   -0.2,    0.0,    0.1,    0.2,    0.0,  999.0,  999.0,    0.0,   -0.3,   -0.3,   -0.2,  999.0,    0.1,    0.2,    0.3,  999.0,  999.0,  999.0,    0.1,   -0.1,  999.0,  999.0,  999.0,  999.0,  999.0,  999.0,  999.0,  999.0,  999.0,  999.0,  999.0
2016/03/20 22:40,  999.0,   -0.0,    0.1,   -0.0,    0.1,    0.5,    0.5,    0.5,    0.4,    0.2,    0.4,    0.8,    1.5,    0.9,    0.9,    1.4,    1.5,    1.8,    2.3,  999.0,  999.0,  999.0,    0.9,    0.1,    0.0,   -0.0,    0.0,  999.0,  999.0,  999.0,    0.1,    0.3,    0.2,  999.0,  999.0,   -0.3,  999.0,  999.0,  999.0,  999.0,  999.0,   -0.3,  999.0,  999.0,  999.0,  999.0,   -0.1,  999.0,  999.0,  999.0,    0.0,   -0.2,   -0.2,   -0.2,   -0.1,  999.0,    0.0,  999.0,  999.0,  999.0,  999.0,  999.0,  999.0,  999.0,   -0.3,  999.0,  999.0,  999.0,   -0.1,    0.2,   -0.3,  999.0,  999.0,  999.0,  999.0,  999.0,  999.0,  999.0,  999.0,  999.0
2016/03/20 22:50,  999.0,   -0.2,   -0.1,    0.2,    0.2,    0.0,    0.2,    0.0,    0.4,    0.4,    1.5,    2.0,    1.7,    2.0,    0.7,    1.1,    2.2,  999.0,  999.0,  999.0,  999.0,  999.0,  999.0,   -0.3,   -0.1,   -0.2,    0.3,    0.0,    0.3,    0.3,    0.3,    0.1,  999.0,  999.0,  999.0,  999.0,  999.0,  999.0,  999.0,   -0.2,  999.0,   -0.4,   -0.0,   -0.0,    0.3,  999.0,  999.0,  999.0,   -0.3,   -0.1,  999.0,  999.0,   -0.2,    0.1,    0.1,    0.5,   -0.1,   -0.1,   -0.1,    0.1,  999.0,    0.2,  999.0,  999.0,  999.0,  999.0,  999.0,    0.2,    0.4,  999.0,  999.0,    0.5,  999.0,  999.0,  999.0,  999.0,  999.0,  999.0,  999.0,  999.0
2016/03/20 23:00,  999.0,    0.1,    0.0,    0.3,    0.2,    0.2,    0.4,    0.7,    0.7,    0.7,    2.8,    2.7,    2.1,    2.0,    0.9,    1.3,  999.0,  999.0,  999.0,  999.0,    0.2,  999.0,  999.0,   -0.4,   -0.6,   -0.5,  999.0,    0.3,  999.0,    0.3,   -0.2,    0.1,  999.0,   -0.0,  999.0,  999.0,  999.0,  999.0,  999.0,  999.0,  999.0,   -0.2,    0.1,    0.1,  999.0,    0.1,    0.1,  999.0,  999.0,    0.1,   -0.0,    0.2,   -0.1,   -0.2,   -0.1,   -0.2,    0.3,    0.0,  999.0,   -0.1,   -0.2,    0.3,   -0.2,   -0.3,  999.0,  999.0,    0.1,  999.0,  999.0,  999.0,  999.0,  999.0,   -0.3,    0.1,  999.0,  999.0,  999.0,  999.0,  999.0,  999.0
2016/03/20 23:10,  999.0,    0.0,   -0.0,   -0.1,    0.2,    0.6,    0.5,    0.5,    0.0,    0.1,    1.6,    2.5,    1.1,    2.2,    2.1,    3.0,    3.7,    4.5,  999.0,  999.0,    0.0,  999.0,   -1.7,    0.2,   -0.4,   -0.4,  999.0,   -0.4,   -0.1,    0.3,   -0.1,   -0.1,    0.2,   -0.3,  999.0,  999.0,  999.0,  999.0,  999.0,  999.0,   -0.1,  999.0,   -0.3,    0.2,  999.0,   -0.0,   -0.1,    0.2,  999.0,   -0.0,   -0.3,   -0.0,    0.1,   -0.1,   -0.2,   -0.2,  999.0,   -0.3,   -0.6,    0.1,  999.0,  999.0,   -0.0,   -0.1,    0.0,  999.0,  999.0,  999.0,  999.0,  999.0,  999.0,  999.0,  999.0,  999.0,  999.0,  999.0,  999.0,  999.0,  999.0,  999.0
2016/03/20 23:20,  999.0,   -0.1,   -0.3,   -0.5,    0.4,    0.3,    0.6,   -0.2,   -0.1,    0.2,    0.9,    2.8,  999.0,    4.1,    4.5,    5.1,    4.1,    3.1,    3.1,  999.0,  999.0,  999.0,  999.0,   -1.8,   -1.6,  999.0,  999.0,   -0.1,   -0.3,  999.0,  999.0,   -0.3,    0.1,  999.0,  999.0,  999.0,  999.0,  999.0,  999.0,  999.0,  999.0,  999.0,   -0.2,   -0.4,  999.0,  999.0,   -0.1,  999.0,   -0.1,    0.1,  999.0,   -0.0,  999.0,  999.0,  999.0,    0.2,    0.2,  999.0,  999.0,    0.4,  999.0,  999.0,  999.0,  999.0,    0.2,   -0.7,  999.0,  999.0,  999.0,  999.0,  999.0,  999.0,  999.0,  999.0,  999.0,  999.0,  999.0,  999.0,  999.0,  999.0
2016/03/20 23:30,  999.0,    0.0,   -0.4,    0.6,    1.1,    1.2,    0.5,    0.2,   -0.4,   -0.1,   -0.5,  999.0,  999.0,    2.1,    3.6,    4.9,    2.8,    2.8,    3.8,  999.0,  999.0,  999.0,  999.0,    0.2,    0.3,  999.0,  999.0,    0.2,   -0.1,    0.1,   -0.6,  999.0,  999.0,  999.0,  999.0,  999.0,  999.0,  999.0,  999.0,  999.0,  999.0,  999.0,  999.0,  999.0,    0.2,  999.0,  999.0,  999.0,   -0.2,  999.0,  999.0,  999.0,  999.0,  999.0,  999.0,   -0.0,    0.0,  999.0,  999.0,  999.0,   -0.2,  999.0,  999.0,  999.0,  999.0,  999.0,  999.0,  999.0,  999.0,  999.0,  999.0,  999.0,  999.0,  999.0,  999.0,  999.0,  999.0,  999.0,  999.0,  999.0
2016/03/20 23:40,  999.0,    0.2,    0.2,    0.8,    2.0,    2.3,    1.1,    0.6,    0.6,    0.8,    1.5,    2.9,    3.6,    3.2,    2.5,    2.2,    3.1,    4.1,  999.0,  999.0,  999.0,  999.0,  999.0,    0.7,    0.3,    0.1,    0.1,    0.2,    0.2,   -0.3,    0.5,  999.0,  999.0,    0.1,  999.0,  999.0,  999.0,  999.0,  999.0,  999.0,  999.0,  999.0,  999.0,  999.0,  999.0,  999.0,  999.0,  999.0,  999.0,  999.0,  999.0,  999.0,  999.0,  999.0,  999.0,  999.0,    0.2,  999.0,    0.0,    0.5,   -0.0,  999.0,  999.0,   -0.4,    0.1,  999.0,  999.0,  999.0,  999.0,  999.0,  999.0,  999.0,  999.0,  999.0,  999.0,  999.0,  999.0,  999.0,  999.0,  999.0
2016/03/20 23:50,  999.0,    0.3,    0.6,    1.8,    2.8,    1.7,    3.3,    1.3,    1.6,    1.1,    1.0,    1.4,    2.2,    3.5,    4.0,    3.6,    3.4,    5.0,    5.0,  999.0,  999.0,  999.0,  999.0,    0.9,    0.0,  999.0,    0.3,    0.3,    0.3,  999.0,    0.1,   -0.1,  999.0,  999.0,  999.0,  999.0,  999.0,  999.0,  999.0,  999.0,  999.0,  999.0,  999.0,  999.0,    0.0,  999.0,  999.0,    0.3,  999.0,  999.0,  999.0,    0.4,  999.0,  999.0,  999.0,  999.0,  999.0,  999.0,  999.0,    0.1,  999.0,    0.2,  999.0,  999.0,  999.0,  999.0,  999.0,  999.0,  999.0,  999.0,  999.0,  999.0,  999.0,  999.0,  999.0,  999.0,  999.0,  999.0,  999.0,  999.0
